Time,TemperatureF,DewpointF,PressureIn,WindDirection,WindDirectionDegrees,WindSpeedMPH,WindSpeedGustMPH,Humidity,HourlyPrecipIn,Conditions,Clouds,dailyrainin,SoftwareType,DateUTC
2013-01-15 00:16:00,41.7,31.1,29.93,NNW,338,0.0,0.0,65,0.02,,,0.00,WUHU216HW,2013-01-15 05:16:00,
2013-01-15 00:17:00,41.7,31.1,29.93,NNW,338,0.0,0.0,65,0.02,,,0.00,WUHU216HW,2013-01-15 05:17:00,
2013-01-15 00:19:00,41.5,30.6,29.93,NNW,338,0.0,0.0,65,0.02,,,0.00,WUHU216HW,2013-01-15 05:19:00,
2013-01-15 00:20:00,41.5,30.6,29.93,NNW,338,0.0,0.0,66,0.02,,,0.00,WUHU216HW,2013-01-15 05:20:00,
2013-01-15 00:21:00,41.5,30.6,29.93,NNW,338,0.0,0.0,66,0.02,,,0.00,WUHU216HW,2013-01-15 05:21:00,
2013-01-15 00:22:00,41.5,30.6,29.94,NNW,338,0.0,0.0,66,0.00,,,0.00,WUHU216HW,2013-01-15 05:22:00,
2013-01-15 00:23:00,41.3,30.8,29.93,NNW,338,0.0,0.0,66,0.00,,,0.00,WUHU216HW,2013-01-15 05:23:00,
2013-01-15 00:24:00,64.9,59.9,29.84,West,270,0.0,0.0,84,0.00,,,0.00,WUHU216HW,2013-01-15 05:24:00,
2013-01-15 00:26:00,41.1,30.6,29.94,NNW,338,0.0,0.0,66,0.00,,,0.00,WUHU216HW,2013-01-15 05:26:00,
2013-01-15 00:27:00,41.1,30.6,29.94,NNW,338,0.0,0.0,67,0.00,,,0.00,WUHU216HW,2013-01-15 05:27:00,
2013-01-15 00:28:00,41.1,30.6,29.94,NNW,338,0.0,0.0,67,0.00,,,0.00,WUHU216HW,2013-01-15 05:28:00,
2013-01-15 00:29:00,41.3,31.2,29.94,NNW,338,0.0,0.0,67,0.00,,,0.00,WUHU216HW,2013-01-15 05:29:00,
2013-01-15 00:30:00,64.9,59.9,29.85,NNE,23,2.4,2.4,85,0.00,,,0.00,WUHU216HW,2013-01-15 05:30:00,
2013-01-15 00:31:00,41.3,31.2,29.94,NNW,338,0.0,0.0,67,0.00,,,0.00,WUHU216HW,2013-01-15 05:31:00,
2013-01-15 00:35:00,64.2,59.6,29.86,ESE,113,0.0,2.4,85,0.00,,,0.00,WUHU216HW,2013-01-15 05:35:00,
2013-01-15 00:40:00,63.5,58.9,29.85,East,90,2.6,2.6,85,0.00,,,0.00,WUHU216HW,2013-01-15 05:40:00,
2013-01-15 00:45:00,61.3,56.8,29.85,East,90,2.6,2.6,85,0.00,,,0.00,WUHU216HW,2013-01-15 05:45:00,
2013-01-15 00:46:00,41.1,31.0,29.95,NNW,338,0.0,1.5,66,0.00,,,0.00,WUHU216HW,2013-01-15 05:46:00,
2013-01-15 00:47:00,41.1,31.0,29.95,NNW,338,0.0,1.5,66,0.00,,,0.00,WUHU216HW,2013-01-15 05:47:00,
2013-01-15 00:48:00,41.1,31.0,29.95,NNW,338,0.0,1.5,66,0.00,,,0.00,WUHU216HW,2013-01-15 05:48:00,
2013-01-15 00:49:00,40.8,30.6,29.95,NNW,338,0.0,1.5,67,0.00,,,0.00,WUHU216HW,2013-01-15 05:49:00,
2013-01-15 00:50:00,61.3,56.8,29.86,West,270,0.0,2.6,85,0.00,,,0.00,WUHU216HW,2013-01-15 05:50:00,
2013-01-15 00:51:00,40.8,30.6,29.95,NNW,338,0.0,0.0,67,0.00,,,0.00,WUHU216HW,2013-01-15 05:51:00,
2013-01-15 00:52:00,40.8,30.6,29.95,NNW,338,0.0,0.0,67,0.00,,,0.00,WUHU216HW,2013-01-15 05:52:00,
2013-01-15 00:53:00,40.8,30.6,29.95,NNW,338,0.0,0.0,68,0.00,,,0.00,WUHU216HW,2013-01-15 05:53:00,
2013-01-15 00:55:00,59.7,54.2,29.87,ENE,68,0.0,2.6,82,0.00,,,0.00,WUHU216HW,2013-01-15 05:55:00,
2013-01-15 00:56:00,40.8,30.6,29.95,NNW,338,0.0,0.0,68,0.00,,,0.00,WUHU216HW,2013-01-15 05:56:00,
2013-01-15 00:57:00,40.8,30.6,29.95,NNW,338,0.0,0.0,68,0.00,,,0.00,WUHU216HW,2013-01-15 05:57:00,
2013-01-15 00:59:00,40.8,30.6,29.95,NNW,338,0.0,0.0,68,0.00,,,0.00,WUHU216HW,2013-01-15 05:59:00,
2013-01-15 01:00:00,59.7,54.2,29.86,ENE,68,0.0,0.0,82,0.00,,,0.00,WUHU216HW,2013-01-15 06:00:00,
2013-01-15 01:01:00,40.8,30.6,29.95,North,0,1.7,1.7,68,0.00,,,0.00,WUHU216HW,2013-01-15 06:01:00,
2013-01-15 01:03:00,40.8,30.6,29.95,NNW,338,0.0,1.7,68,0.00,,,0.00,WUHU216HW,2013-01-15 06:03:00,
2013-01-15 01:04:00,40.6,30.8,29.95,NNW,338,0.0,1.7,68,0.00,,,0.00,WUHU216HW,2013-01-15 06:04:00,
2013-01-15 01:05:00,59.7,54.2,29.86,ENE,68,0.0,0.0,82,0.00,,,0.00,WUHU216HW,2013-01-15 06:05:00,
2013-01-15 01:06:00,40.6,30.8,29.95,NNW,338,0.0,1.7,68,0.00,,,0.00,WUHU216HW,2013-01-15 06:06:00,
2013-01-15 01:07:00,40.6,30.8,29.95,NNW,338,0.0,1.7,68,0.00,,,0.00,WUHU216HW,2013-01-15 06:07:00,
2013-01-15 01:08:00,40.6,30.8,29.95,NNW,338,0.0,1.7,68,0.00,,,0.00,WUHU216HW,2013-01-15 06:08:00,
2013-01-15 01:09:00,40.6,30.8,29.95,NNW,338,0.0,1.7,68,0.00,,,0.00,WUHU216HW,2013-01-15 06:09:00,
2013-01-15 01:10:00,59.7,54.2,29.87,WNW,293,0.0,0.0,82,0.00,,,0.00,WUHU216HW,2013-01-15 06:10:00,
2013-01-15 01:16:00,56.1,51.2,29.88,ENE,68,0.0,0.0,84,0.00,,,0.00,WUHU216HW,2013-01-15 06:16:00,
2013-01-15 01:21:00,55.4,50.9,29.88,WSW,248,0.0,3.3,85,0.00,,,0.00,WUHU216HW,2013-01-15 06:21:00,
2013-01-15 01:26:00,55.4,50.9,29.89,WSW,248,0.0,3.3,85,0.00,,,0.00,WUHU216HW,2013-01-15 06:26:00,
2013-01-15 01:31:00,55.4,50.9,29.89,WSW,248,0.0,0.0,85,0.00,,,0.00,WUHU216HW,2013-01-15 06:31:00,
2013-01-15 01:36:00,55.4,50.9,29.89,WSW,248,0.0,0.0,85,0.00,,,0.00,WUHU216HW,2013-01-15 06:36:00,
2013-01-15 01:42:00,55.4,50.9,29.89,NE,45,2.6,2.6,85,0.00,,,0.00,WUHU216HW,2013-01-15 06:42:00,
2013-01-15 01:47:00,53.2,48.5,29.89,NE,45,2.6,2.6,84,0.00,,,0.00,WUHU216HW,2013-01-15 06:47:00,
2013-01-15 01:52:00,53.0,48.3,29.90,ENE,68,7.1,7.1,85,0.00,,,0.00,WUHU216HW,2013-01-15 06:52:00,
2013-01-15 01:56:00,38.8,29.8,29.96,NE,45,0.0,0.0,70,0.00,,,0.00,WUHU216HW,2013-01-15 06:56:00,
2013-01-15 01:57:00,53.0,48.6,29.90,WNW,293,2.6,7.1,85,0.00,,,0.00,WUHU216HW,2013-01-15 06:57:00,
2013-01-15 01:58:00,38.8,29.8,29.96,NE,45,0.0,0.0,70,0.00,,,0.00,WUHU216HW,2013-01-15 06:58:00,
2013-01-15 01:59:00,38.8,29.8,29.96,NE,45,0.0,0.0,70,0.00,,,0.00,WUHU216HW,2013-01-15 06:59:00,
2013-01-15 02:00:00,38.4,29.8,29.96,NE,45,0.0,0.0,71,0.00,,,0.00,WUHU216HW,2013-01-15 07:00:00,
2013-01-15 02:02:00,51.9,47.5,29.89,ENE,68,0.0,7.1,85,0.00,,,0.00,WUHU216HW,2013-01-15 07:02:00,
2013-01-15 02:04:00,38.1,29.5,29.96,NE,45,0.0,0.0,71,0.00,,,0.00,WUHU216HW,2013-01-15 07:04:00,
2013-01-15 02:05:00,38.1,29.5,29.96,NE,45,0.0,0.0,71,0.00,,,0.00,WUHU216HW,2013-01-15 07:05:00,
2013-01-15 02:06:00,37.7,29.5,29.96,NE,45,0.0,0.0,72,0.00,,,0.00,WUHU216HW,2013-01-15 07:06:00,
2013-01-15 02:07:00,51.9,47.5,29.89,ENE,68,0.0,2.6,85,0.00,,,0.00,WUHU216HW,2013-01-15 07:07:00,
2013-01-15 02:09:00,37.5,29.3,29.96,NE,45,0.0,0.0,72,0.00,,,0.00,WUHU216HW,2013-01-15 07:09:00,
2013-01-15 02:10:00,37.5,29.3,29.97,NE,45,0.0,0.0,73,0.00,,,0.00,WUHU216HW,2013-01-15 07:10:00,
2013-01-15 02:11:00,37.5,29.3,29.97,NE,45,0.0,0.0,73,0.00,,,0.00,WUHU216HW,2013-01-15 07:11:00,
2013-01-15 02:12:00,51.0,46.6,29.89,WNW,293,0.0,0.0,85,0.00,,,0.00,WUHU216HW,2013-01-15 07:12:00,
2013-01-15 02:13:00,37.5,29.3,29.97,NE,45,0.0,0.0,73,0.00,,,0.00,WUHU216HW,2013-01-15 07:13:00,
2013-01-15 02:17:00,50.7,46.3,29.89,WNW,293,1.3,1.3,85,0.00,,,0.00,WUHU216HW,2013-01-15 07:17:00,
2013-01-15 02:22:00,50.5,46.1,29.89,East,90,0.0,1.3,86,0.00,,,0.00,WUHU216HW,2013-01-15 07:22:00,
2013-01-15 02:27:00,50.1,46.0,29.89,NW,315,2.4,4.0,86,0.00,,,0.00,WUHU216HW,2013-01-15 07:27:00,
2013-01-15 02:31:00,36.3,28.7,29.98,NE,45,0.0,0.0,74,0.00,,,0.00,WUHU216HW,2013-01-15 07:31:00,
2013-01-15 02:32:00,50.1,46.0,29.90,West,270,2.0,4.0,86,0.00,,,0.00,WUHU216HW,2013-01-15 07:32:00,
2013-01-15 02:33:00,36.3,28.7,29.98,NE,45,0.0,0.0,75,0.00,,,0.00,WUHU216HW,2013-01-15 07:33:00,
2013-01-15 02:34:00,36.3,28.7,29.98,NE,45,0.0,0.0,75,0.00,,,0.00,WUHU216HW,2013-01-15 07:34:00,
2013-01-15 02:35:00,36.3,28.7,29.98,NE,45,0.0,0.0,75,0.00,,,0.00,WUHU216HW,2013-01-15 07:35:00,
2013-01-15 02:36:00,36.1,28.9,29.98,NE,45,0.0,0.0,75,0.00,,,0.00,WUHU216HW,2013-01-15 07:36:00,
2013-01-15 02:37:00,50.0,45.8,29.90,NNW,338,0.0,2.0,86,0.00,,,0.00,WUHU216HW,2013-01-15 07:37:00,
2013-01-15 02:38:00,36.1,28.9,29.98,NE,45,0.0,0.0,75,0.00,,,0.00,WUHU216HW,2013-01-15 07:38:00,
2013-01-15 02:39:00,36.1,28.9,29.98,NE,45,0.0,0.0,75,0.00,,,0.00,WUHU216HW,2013-01-15 07:39:00,
2013-01-15 02:40:00,36.1,28.9,29.98,NE,45,0.0,0.0,75,0.00,,,0.00,WUHU216HW,2013-01-15 07:40:00,
2013-01-15 02:41:00,35.9,29.0,29.98,NE,45,0.0,0.0,76,0.00,,,0.00,WUHU216HW,2013-01-15 07:41:00,
2013-01-15 02:42:00,49.8,45.7,29.90,SW,225,0.0,2.0,86,0.00,,,0.00,WUHU216HW,2013-01-15 07:42:00,
2013-01-15 02:48:00,49.6,45.5,29.91,NNW,338,0.0,0.0,86,0.00,,,0.00,WUHU216HW,2013-01-15 07:48:00,
2013-01-15 02:53:00,49.6,45.5,29.90,NNW,338,0.0,0.0,86,0.00,,,0.00,WUHU216HW,2013-01-15 07:53:00,
2013-01-15 02:58:00,49.6,45.5,29.90,ENE,68,0.0,0.0,86,0.00,,,0.00,WUHU216HW,2013-01-15 07:58:00,
2013-01-15 03:01:00,34.8,28.3,30.00,NE,45,0.0,0.0,77,0.00,,,0.00,WUHU216HW,2013-01-15 08:01:00,
2013-01-15 03:03:00,49.6,45.5,29.90,ENE,68,0.0,0.0,86,0.00,,,0.00,WUHU216HW,2013-01-15 08:03:00,
2013-01-15 03:04:00,34.8,28.3,30.00,NE,45,0.0,0.0,78,0.00,,,0.00,WUHU216HW,2013-01-15 08:04:00,
2013-01-15 03:06:00,34.8,28.3,30.00,NE,45,0.0,0.0,78,0.00,,,0.00,WUHU216HW,2013-01-15 08:06:00,
2013-01-15 03:07:00,34.8,28.3,30.00,NE,45,0.0,0.0,78,0.00,,,0.00,WUHU216HW,2013-01-15 08:07:00,
2013-01-15 03:08:00,49.6,45.5,29.90,ENE,68,0.0,0.0,86,0.00,,,0.00,WUHU216HW,2013-01-15 08:08:00,
2013-01-15 03:09:00,34.7,28.1,30.00,NE,45,0.0,0.0,77,0.00,,,0.00,WUHU216HW,2013-01-15 08:09:00,
2013-01-15 03:10:00,34.7,28.1,30.00,NE,45,0.0,0.0,77,0.00,,,0.00,WUHU216HW,2013-01-15 08:10:00,
2013-01-15 03:11:00,34.7,28.1,30.00,NE,45,0.0,0.0,77,0.00,,,0.00,WUHU216HW,2013-01-15 08:11:00,
2013-01-15 03:12:00,34.7,28.1,30.00,NE,45,0.0,0.0,77,0.00,,,0.00,WUHU216HW,2013-01-15 08:12:00,
2013-01-15 03:13:00,49.6,45.5,29.90,NNW,338,0.0,0.0,86,0.00,,,0.00,WUHU216HW,2013-01-15 08:13:00,
2013-01-15 03:14:00,34.7,28.1,30.00,NE,45,0.0,0.0,78,0.00,,,0.00,WUHU216HW,2013-01-15 08:14:00,
2013-01-15 03:15:00,34.5,28.2,30.00,NE,45,0.0,0.0,78,0.00,,,0.00,WUHU216HW,2013-01-15 08:15:00,
2013-01-15 03:16:00,34.5,28.2,30.00,NE,45,0.0,0.0,78,0.00,,,0.00,WUHU216HW,2013-01-15 08:16:00,
2013-01-15 03:17:00,34.5,28.2,30.00,NE,45,0.0,0.0,78,0.00,,,0.00,WUHU216HW,2013-01-15 08:17:00,
2013-01-15 03:18:00,48.9,44.8,29.90,ESE,113,0.0,0.0,86,0.00,,,0.00,WUHU216HW,2013-01-15 08:18:00,
2013-01-15 03:19:00,34.3,28.1,30.00,NE,45,0.0,0.0,78,0.00,,,0.00,WUHU216HW,2013-01-15 08:19:00,
2013-01-15 03:20:00,34.3,28.1,30.00,NE,45,0.0,0.0,78,0.00,,,0.00,WUHU216HW,2013-01-15 08:20:00,
2013-01-15 03:21:00,33.9,27.7,30.01,NE,45,0.0,0.0,78,0.00,,,0.00,WUHU216HW,2013-01-15 08:21:00,
2013-01-15 03:23:00,48.9,44.8,29.89,NE,45,0.8,0.8,86,0.00,,,0.00,WUHU216HW,2013-01-15 08:23:00,
2013-01-15 03:28:00,48.7,44.7,29.89,NNE,23,0.0,0.8,86,0.00,,,0.00,WUHU216HW,2013-01-15 08:28:00,
2013-01-15 03:33:00,48.7,45.0,29.90,NE,45,0.0,0.8,87,0.00,,,0.00,WUHU216HW,2013-01-15 08:33:00,
2013-01-15 03:38:00,48.7,45.0,29.89,NE,45,0.0,0.0,87,0.00,,,0.00,WUHU216HW,2013-01-15 08:38:00,
2013-01-15 03:41:00,33.0,27.5,30.00,NE,45,0.0,0.0,80,0.00,,,0.00,WUHU216HW,2013-01-15 08:41:00,
2013-01-15 03:42:00,33.0,27.5,30.00,NE,45,0.0,0.0,80,0.00,,,0.00,WUHU216HW,2013-01-15 08:42:00,
2013-01-15 03:43:00,48.5,44.8,29.88,ENE,68,0.0,0.0,87,0.00,,,0.00,WUHU216HW,2013-01-15 08:43:00,
2013-01-15 03:44:00,33.0,27.5,30.00,NE,45,0.0,0.0,80,0.00,,,0.00,WUHU216HW,2013-01-15 08:44:00,
2013-01-15 03:45:00,33.0,27.5,30.00,NE,45,0.0,0.0,80,0.00,,,0.00,WUHU216HW,2013-01-15 08:45:00,
2013-01-15 03:47:00,33.0,27.5,30.00,NE,45,0.0,0.0,81,0.00,,,0.00,WUHU216HW,2013-01-15 08:47:00,
2013-01-15 03:48:00,48.5,44.8,29.88,ENE,68,0.0,0.0,87,0.00,,,0.00,WUHU216HW,2013-01-15 08:48:00,
2013-01-15 03:49:00,33.0,27.5,30.00,NE,45,0.0,0.0,81,0.00,,,0.00,WUHU216HW,2013-01-15 08:49:00,
2013-01-15 03:50:00,33.0,27.5,30.00,NE,45,0.0,0.0,81,0.00,,,0.00,WUHU216HW,2013-01-15 08:50:00,
2013-01-15 03:51:00,33.0,27.5,30.00,NE,45,0.0,0.0,81,0.00,,,0.00,WUHU216HW,2013-01-15 08:51:00,
2013-01-15 03:52:00,33.0,27.5,30.00,NE,45,0.0,0.0,80,0.00,,,0.00,WUHU216HW,2013-01-15 08:52:00,
2013-01-15 03:53:00,48.5,44.8,29.89,West,270,0.0,0.0,87,0.00,,,0.00,WUHU216HW,2013-01-15 08:53:00,
2013-01-15 03:58:00,48.3,44.3,29.89,NE,45,0.0,0.0,86,0.00,,,0.00,WUHU216HW,2013-01-15 08:58:00,
2013-01-15 04:03:00,48.3,44.3,29.90,NE,45,0.0,0.0,86,0.00,,,0.00,WUHU216HW,2013-01-15 09:03:00,
2013-01-15 04:07:00,32.9,27.7,30.00,NE,45,0.0,0.0,81,0.00,,,0.00,WUHU216HW,2013-01-15 09:07:00,
2013-01-15 04:08:00,48.3,44.3,29.90,NE,45,0.0,0.0,86,0.00,,,0.00,WUHU216HW,2013-01-15 09:08:00,
2013-01-15 04:09:00,32.9,27.7,30.00,NE,45,0.0,0.0,81,0.00,,,0.00,WUHU216HW,2013-01-15 09:09:00,
2013-01-15 04:10:00,32.9,27.7,30.01,NE,45,0.0,0.0,81,0.00,,,0.00,WUHU216HW,2013-01-15 09:10:00,
2013-01-15 04:11:00,32.9,27.7,30.01,NE,45,0.0,0.0,81,0.00,,,0.00,WUHU216HW,2013-01-15 09:11:00,
2013-01-15 04:12:00,32.9,27.7,30.01,NE,45,0.0,0.0,81,0.00,,,0.00,WUHU216HW,2013-01-15 09:12:00,
2013-01-15 04:13:00,48.3,44.3,29.90,NE,45,0.0,0.0,86,0.00,,,0.00,WUHU216HW,2013-01-15 09:13:00,
2013-01-15 04:14:00,32.7,27.5,30.01,NE,45,0.0,0.0,81,0.00,,,0.00,WUHU216HW,2013-01-15 09:14:00,
2013-01-15 04:15:00,32.7,27.5,30.01,NE,45,0.0,0.0,81,0.00,,,0.00,WUHU216HW,2013-01-15 09:15:00,
2013-01-15 04:16:00,32.7,27.5,30.01,NE,45,0.0,0.0,81,0.00,,,0.00,WUHU216HW,2013-01-15 09:16:00,
2013-01-15 04:17:00,32.7,27.5,30.01,NE,45,0.0,0.0,81,0.00,,,0.00,WUHU216HW,2013-01-15 09:17:00,
2013-01-15 04:18:00,47.8,43.8,29.90,NNW,338,0.0,0.0,86,0.00,,,0.00,WUHU216HW,2013-01-15 09:18:00,
2013-01-15 04:19:00,32.5,27.3,30.01,NE,45,0.0,0.0,81,0.00,,,0.00,WUHU216HW,2013-01-15 09:19:00,
2013-01-15 04:20:00,32.5,27.3,30.01,NE,45,0.0,0.0,82,0.00,,,0.00,WUHU216HW,2013-01-15 09:20:00,
2013-01-15 04:21:00,32.5,27.3,30.01,NE,45,0.0,0.0,82,0.00,,,0.00,WUHU216HW,2013-01-15 09:21:00,
2013-01-15 04:22:00,32.5,27.3,30.01,NE,45,0.0,0.0,82,0.00,,,0.00,WUHU216HW,2013-01-15 09:22:00,
2013-01-15 04:23:00,32.5,27.3,30.01,NE,45,0.0,0.0,82,0.00,,,0.00,WUHU216HW,2013-01-15 09:23:00,
2013-01-15 04:24:00,47.8,43.8,29.90,SE,135,0.0,0.0,86,0.00,,,0.00,WUHU216HW,2013-01-15 09:24:00,
2013-01-15 04:25:00,32.5,27.3,30.01,NE,45,0.0,0.0,82,0.00,,,0.00,WUHU216HW,2013-01-15 09:25:00,
2013-01-15 04:26:00,32.5,27.3,30.01,NE,45,0.0,0.0,82,0.00,,,0.00,WUHU216HW,2013-01-15 09:26:00,
2013-01-15 04:27:00,32.5,27.3,30.02,NE,45,0.0,0.0,82,0.00,,,0.00,WUHU216HW,2013-01-15 09:27:00,
2013-01-15 04:28:00,32.5,27.3,30.02,NE,45,0.0,0.0,82,0.00,,,0.00,WUHU216HW,2013-01-15 09:28:00,
2013-01-15 04:29:00,47.8,43.8,29.89,East,90,0.0,0.0,86,0.00,,,0.00,WUHU216HW,2013-01-15 09:29:00,
2013-01-15 04:30:00,32.1,27.3,30.03,NE,45,0.0,0.0,82,0.00,,,0.00,WUHU216HW,2013-01-15 09:30:00,
2013-01-15 04:31:00,32.1,27.3,30.03,NE,45,0.0,0.0,82,0.00,,,0.00,WUHU216HW,2013-01-15 09:31:00,
2013-01-15 04:32:00,32.1,27.3,30.03,NE,45,0.0,0.0,82,0.00,,,0.00,WUHU216HW,2013-01-15 09:32:00,
2013-01-15 04:33:00,32.1,27.3,30.02,NE,45,0.0,0.0,82,0.00,,,0.00,WUHU216HW,2013-01-15 09:33:00,
2013-01-15 04:34:00,47.8,43.8,29.89,SE,135,0.0,0.0,86,0.00,,,0.00,WUHU216HW,2013-01-15 09:34:00,
2013-01-15 04:35:00,32.1,27.3,30.03,NE,45,0.0,0.0,82,0.00,,,0.00,WUHU216HW,2013-01-15 09:35:00,
2013-01-15 04:36:00,32.1,27.3,30.03,NE,45,0.0,0.0,82,0.00,,,0.00,WUHU216HW,2013-01-15 09:36:00,
2013-01-15 04:37:00,32.1,27.3,30.03,NE,45,0.0,0.0,83,0.00,,,0.00,WUHU216HW,2013-01-15 09:37:00,
2013-01-15 04:38:00,32.1,27.3,30.02,NE,45,0.0,0.0,83,0.00,,,0.00,WUHU216HW,2013-01-15 09:38:00,
2013-01-15 04:39:00,47.8,43.8,29.88,NE,45,0.0,0.0,86,0.00,,,0.00,WUHU216HW,2013-01-15 09:39:00,
2013-01-15 04:40:00,32.1,27.3,30.03,NE,45,0.0,0.0,83,0.00,,,0.00,WUHU216HW,2013-01-15 09:40:00,
2013-01-15 04:41:00,32.1,27.3,30.02,NE,45,0.0,0.0,83,0.00,,,0.00,WUHU216HW,2013-01-15 09:41:00,
2013-01-15 04:42:00,32.1,27.3,30.02,NE,45,0.0,0.0,83,0.00,,,0.00,WUHU216HW,2013-01-15 09:42:00,
2013-01-15 04:44:00,47.4,43.5,29.88,NE,45,0.0,0.0,86,0.00,,,0.00,WUHU216HW,2013-01-15 09:44:00,
2013-01-15 04:45:00,32.1,27.3,30.02,NE,45,0.0,0.0,83,0.00,,,0.00,WUHU216HW,2013-01-15 09:45:00,
2013-01-15 04:49:00,47.4,43.5,29.88,NNE,23,0.0,0.0,86,0.00,,,0.00,WUHU216HW,2013-01-15 09:49:00,
2013-01-15 04:54:00,47.4,43.5,29.87,ENE,68,0.0,0.0,87,0.00,,,0.00,WUHU216HW,2013-01-15 09:54:00,
2013-01-15 04:59:00,47.3,43.6,29.87,ENE,68,0.0,0.0,87,0.00,,,0.00,WUHU216HW,2013-01-15 09:59:00,
2013-01-15 05:04:00,47.4,43.8,29.87,ENE,68,0.0,0.0,87,0.00,,,0.00,WUHU216HW,2013-01-15 10:04:00,
2013-01-15 05:09:00,47.4,43.8,29.87,ENE,68,0.0,0.0,87,0.00,,,0.00,WUHU216HW,2013-01-15 10:09:00,
2013-01-15 05:14:00,47.4,43.8,29.86,ENE,68,0.0,0.0,87,0.00,,,0.00,WUHU216HW,2013-01-15 10:14:00,
2013-01-15 05:19:00,47.4,43.8,29.87,ENE,68,0.0,0.0,87,0.00,,,0.00,WUHU216HW,2013-01-15 10:19:00,
2013-01-15 05:21:00,32.1,27.6,30.03,NE,45,0.0,0.0,83,0.00,,,0.00,WUHU216HW,2013-01-15 10:21:00,
2013-01-15 05:22:00,32.1,27.6,30.03,NE,45,0.0,0.0,83,0.00,,,0.00,WUHU216HW,2013-01-15 10:22:00,
2013-01-15 05:23:00,32.1,27.6,30.03,NE,45,0.0,0.0,83,0.00,,,0.00,WUHU216HW,2013-01-15 10:23:00,
2013-01-15 05:24:00,47.1,43.4,29.86,ENE,68,0.0,0.0,87,0.00,,,0.00,WUHU216HW,2013-01-15 10:24:00,
2013-01-15 05:26:00,32.0,27.4,30.03,NE,45,0.0,0.0,83,0.00,,,0.00,WUHU216HW,2013-01-15 10:26:00,
2013-01-15 05:27:00,31.8,27.2,30.03,NE,45,0.0,0.0,83,0.00,,,0.00,WUHU216HW,2013-01-15 10:27:00,
2013-01-15 05:28:00,31.8,27.2,30.03,NE,45,0.0,0.0,83,0.00,,,0.00,WUHU216HW,2013-01-15 10:28:00,
2013-01-15 05:29:00,47.1,43.4,29.87,ENE,68,0.0,0.0,87,0.00,,,0.00,WUHU216HW,2013-01-15 10:29:00,
2013-01-15 05:31:00,31.6,27.1,30.03,NE,45,0.0,0.0,83,0.00,,,0.00,WUHU216HW,2013-01-15 10:31:00,
2013-01-15 05:32:00,31.6,27.1,30.03,NE,45,0.0,0.0,83,0.00,,,0.00,WUHU216HW,2013-01-15 10:32:00,
2013-01-15 05:33:00,31.6,27.1,30.03,NE,45,0.0,0.0,83,0.00,,,0.00,WUHU216HW,2013-01-15 10:33:00,
2013-01-15 05:34:00,47.1,43.4,29.86,ENE,68,0.0,0.0,87,0.00,,,0.00,WUHU216HW,2013-01-15 10:34:00,
2013-01-15 05:36:00,31.6,27.1,30.03,NE,45,0.0,0.0,83,0.00,,,0.00,WUHU216HW,2013-01-15 10:36:00,
2013-01-15 05:37:00,31.6,27.1,30.04,NE,45,0.0,0.0,83,0.00,,,0.00,WUHU216HW,2013-01-15 10:37:00,
2013-01-15 05:39:00,46.9,43.3,29.86,NE,45,1.1,1.1,87,0.00,,,0.00,WUHU216HW,2013-01-15 10:39:00,
2013-01-15 05:41:00,31.6,27.1,30.04,NE,45,0.0,0.0,83,0.00,,,0.00,WUHU216HW,2013-01-15 10:41:00,
2013-01-15 05:42:00,31.6,27.1,30.04,NE,45,0.0,0.0,83,0.00,,,0.00,WUHU216HW,2013-01-15 10:42:00,
2013-01-15 05:44:00,46.7,43.1,29.86,ENE,68,0.0,1.1,87,0.00,,,0.00,WUHU216HW,2013-01-15 10:44:00,
2013-01-15 05:45:00,31.6,27.1,30.04,NE,45,0.0,0.0,83,0.00,,,0.00,WUHU216HW,2013-01-15 10:45:00,
2013-01-15 05:46:00,31.6,27.1,30.05,NE,45,0.0,0.0,83,0.00,,,0.00,WUHU216HW,2013-01-15 10:46:00,
2013-01-15 05:49:00,46.5,42.9,29.86,NE,45,0.0,1.1,87,0.00,,,0.00,WUHU216HW,2013-01-15 10:49:00,
2013-01-15 05:50:00,31.6,27.1,30.05,NE,45,0.0,0.0,83,0.00,,,0.00,WUHU216HW,2013-01-15 10:50:00,
2013-01-15 05:51:00,31.6,27.1,30.05,NE,45,0.0,0.0,83,0.00,,,0.00,WUHU216HW,2013-01-15 10:51:00,
2013-01-15 05:52:00,31.6,27.1,30.05,NE,45,0.0,0.0,83,0.00,,,0.00,WUHU216HW,2013-01-15 10:52:00,
2013-01-15 05:53:00,31.6,27.1,30.05,NE,45,0.0,0.0,83,0.00,,,0.00,WUHU216HW,2013-01-15 10:53:00,
2013-01-15 05:54:00,46.5,42.9,29.86,ENE,68,0.0,0.0,87,0.00,,,0.00,WUHU216HW,2013-01-15 10:54:00,
2013-01-15 05:55:00,31.6,27.1,30.05,NE,45,0.0,0.0,83,0.00,,,0.00,WUHU216HW,2013-01-15 10:55:00,
2013-01-15 05:59:00,46.5,42.9,29.87,ENE,68,0.0,0.0,87,0.00,,,0.00,WUHU216HW,2013-01-15 10:59:00,
2013-01-15 06:04:00,46.5,42.9,29.87,ENE,68,0.0,0.0,87,0.00,,,0.00,WUHU216HW,2013-01-15 11:04:00,
2013-01-15 06:09:00,46.5,43.2,29.86,NNE,23,4.4,4.4,88,0.00,,,0.00,WUHU216HW,2013-01-15 11:09:00,
2013-01-15 06:15:00,46.4,42.7,29.85,ENE,68,0.0,8.5,87,0.00,,,0.00,WUHU216HW,2013-01-15 11:15:00,
2013-01-15 06:20:00,46.4,42.7,29.86,East,90,0.0,8.5,88,0.00,,,0.00,WUHU216HW,2013-01-15 11:20:00,
2013-01-15 06:25:00,46.4,43.0,29.86,NE,45,0.0,0.0,88,0.00,,,0.00,WUHU216HW,2013-01-15 11:25:00,
2013-01-15 06:30:00,46.4,43.0,29.86,ENE,68,0.0,0.0,88,0.00,,,0.00,WUHU216HW,2013-01-15 11:30:00,
2013-01-15 06:35:00,46.5,43.2,29.86,East,90,0.0,0.0,88,0.00,,,0.00,WUHU216HW,2013-01-15 11:35:00,
2013-01-15 06:40:00,46.4,43.0,29.86,NNE,23,0.0,0.0,88,0.00,,,0.00,WUHU216HW,2013-01-15 11:40:00,
2013-01-15 06:45:00,46.5,43.2,29.86,ENE,68,0.0,0.0,88,0.00,,,0.00,WUHU216HW,2013-01-15 11:45:00,
2013-01-15 06:50:00,46.4,43.0,29.86,NE,45,0.0,0.0,88,0.00,,,0.00,WUHU216HW,2013-01-15 11:50:00,
2013-01-15 06:55:00,46.2,42.9,29.86,NE,45,0.0,0.0,88,0.00,,,0.00,WUHU216HW,2013-01-15 11:55:00,
2013-01-15 07:00:00,46.2,42.9,29.87,SSW,203,0.0,1.7,88,0.00,,,0.00,WUHU216HW,2013-01-15 12:00:00,
2013-01-15 07:05:00,46.2,42.9,29.87,ENE,68,0.0,1.7,88,0.00,,,0.00,WUHU216HW,2013-01-15 12:05:00,
2013-01-15 07:10:00,46.2,42.9,29.87,NE,45,0.2,0.2,88,0.00,,,0.00,WUHU216HW,2013-01-15 12:10:00,
2013-01-15 07:11:00,29.8,25.8,30.08,NE,45,0.0,0.0,85,0.00,,,0.00,WUHU216HW,2013-01-15 12:11:00,
2013-01-15 07:12:00,29.8,25.8,30.08,NE,45,0.0,0.0,85,0.00,,,0.00,WUHU216HW,2013-01-15 12:12:00,
2013-01-15 07:13:00,29.8,25.8,30.08,NE,45,0.0,0.0,85,0.00,,,0.00,WUHU216HW,2013-01-15 12:13:00,
2013-01-15 07:14:00,29.8,25.8,30.08,NE,45,0.0,0.0,85,0.00,,,0.00,WUHU216HW,2013-01-15 12:14:00,
2013-01-15 07:15:00,29.8,25.8,30.08,NE,45,0.0,0.0,85,0.00,,,0.00,WUHU216HW,2013-01-15 12:15:00,
2013-01-15 07:16:00,46.2,42.9,29.87,NE,45,0.0,0.2,88,0.00,,,0.00,WUHU216HW,2013-01-15 12:16:00,
2013-01-15 07:17:00,29.8,25.8,30.08,NE,45,0.0,0.0,85,0.00,,,0.00,WUHU216HW,2013-01-15 12:17:00,
2013-01-15 07:18:00,29.8,25.8,30.08,NE,45,0.0,0.0,85,0.00,,,0.00,WUHU216HW,2013-01-15 12:18:00,
2013-01-15 07:19:00,29.8,25.8,30.08,NE,45,0.0,0.0,85,0.00,,,0.00,WUHU216HW,2013-01-15 12:19:00,
2013-01-15 07:20:00,29.8,25.8,30.08,NE,45,0.0,0.0,85,0.00,,,0.00,WUHU216HW,2013-01-15 12:20:00,
2013-01-15 07:21:00,46.2,42.9,29.87,NE,45,0.0,0.2,88,0.00,,,0.00,WUHU216HW,2013-01-15 12:21:00,
2013-01-15 07:22:00,29.8,25.8,30.08,NE,45,0.0,0.0,85,0.00,,,0.00,WUHU216HW,2013-01-15 12:22:00,
2013-01-15 07:26:00,46.2,42.9,29.88,NNW,338,0.0,0.4,88,0.00,,,0.00,WUHU216HW,2013-01-15 12:26:00,
2013-01-15 07:31:00,46.2,42.9,29.88,ENE,68,0.0,0.4,88,0.00,,,0.00,WUHU216HW,2013-01-15 12:31:00,
2013-01-15 07:36:00,46.2,42.9,29.88,NE,45,0.0,0.0,88,0.00,,,0.00,WUHU216HW,2013-01-15 12:36:00,
2013-01-15 07:41:00,46.0,42.7,29.89,NE,45,0.0,0.0,88,0.00,,,0.00,WUHU216HW,2013-01-15 12:41:00,
2013-01-15 07:42:00,29.6,25.9,30.09,NE,45,0.0,0.0,86,0.00,,,0.00,WUHU216HW,2013-01-15 12:42:00,
2013-01-15 07:43:00,29.6,25.9,30.09,NE,45,0.0,0.0,86,0.00,,,0.00,WUHU216HW,2013-01-15 12:43:00,
2013-01-15 07:45:00,29.4,25.8,30.10,NE,45,0.0,0.0,86,0.00,,,0.00,WUHU216HW,2013-01-15 12:45:00,
2013-01-15 07:46:00,46.0,42.7,29.89,WNW,293,0.0,0.0,88,0.00,,,0.00,WUHU216HW,2013-01-15 12:46:00,
2013-01-15 07:47:00,29.4,25.8,30.10,NE,45,0.0,0.0,86,0.00,,,0.00,WUHU216HW,2013-01-15 12:47:00,
2013-01-15 07:48:00,29.4,25.8,30.10,NE,45,0.0,0.0,86,0.00,,,0.00,WUHU216HW,2013-01-15 12:48:00,
2013-01-15 07:49:00,29.4,25.8,30.10,NE,45,0.0,0.0,86,0.00,,,0.00,WUHU216HW,2013-01-15 12:49:00,
2013-01-15 07:50:00,29.4,25.8,30.10,NE,45,0.0,0.0,86,0.00,,,0.00,WUHU216HW,2013-01-15 12:50:00,
2013-01-15 07:51:00,46.0,42.7,29.89,NE,45,0.0,0.0,88,0.00,,,0.00,WUHU216HW,2013-01-15 12:51:00,
2013-01-15 07:52:00,29.4,25.8,30.10,NE,45,0.0,0.0,86,0.00,,,0.00,WUHU216HW,2013-01-15 12:52:00,
2013-01-15 07:53:00,29.4,25.8,30.10,NE,45,0.0,0.0,86,0.00,,,0.00,WUHU216HW,2013-01-15 12:53:00,
2013-01-15 07:54:00,29.4,25.8,30.10,NE,45,0.0,0.0,86,0.00,,,0.00,WUHU216HW,2013-01-15 12:54:00,
2013-01-15 07:55:00,29.4,25.8,30.10,NE,45,0.0,0.0,86,0.00,,,0.00,WUHU216HW,2013-01-15 12:55:00,
2013-01-15 07:56:00,46.0,42.7,29.90,NE,45,0.0,0.0,88,0.00,,,0.00,WUHU216HW,2013-01-15 12:56:00,
2013-01-15 07:57:00,29.4,25.8,30.10,NE,45,0.0,0.0,86,0.00,,,0.00,WUHU216HW,2013-01-15 12:57:00,
2013-01-15 07:58:00,29.4,25.8,30.10,NE,45,0.0,0.0,86,0.00,,,0.00,WUHU216HW,2013-01-15 12:58:00,
2013-01-15 07:59:00,29.4,25.8,30.10,NE,45,0.0,0.0,86,0.00,,,0.00,WUHU216HW,2013-01-15 12:59:00,
2013-01-15 08:01:00,46.0,42.7,29.90,NE,45,0.0,0.0,88,0.00,,,0.00,WUHU216HW,2013-01-15 13:01:00,
2013-01-15 08:06:00,46.0,42.7,29.90,ESE,113,0.0,0.0,88,0.00,,,0.00,WUHU216HW,2013-01-15 13:06:00,
2013-01-15 08:11:00,46.0,42.7,29.90,ENE,68,0.0,0.0,88,0.00,,,0.00,WUHU216HW,2013-01-15 13:11:00,
2013-01-15 08:16:00,46.0,42.7,29.91,NE,45,0.0,0.0,88,0.00,,,0.00,WUHU216HW,2013-01-15 13:16:00,
2013-01-15 08:21:00,46.0,42.7,29.91,NE,45,0.0,0.0,88,0.00,,,0.00,WUHU216HW,2013-01-15 13:21:00,
2013-01-15 08:22:00,28.9,25.5,30.11,NE,45,0.0,0.0,87,0.00,,,0.00,WUHU216HW,2013-01-15 13:22:00,
2013-01-15 08:23:00,28.9,25.5,30.11,NE,45,0.0,0.0,87,0.00,,,0.00,WUHU216HW,2013-01-15 13:23:00,
2013-01-15 08:24:00,28.9,25.5,30.11,NE,45,0.0,0.0,87,0.00,,,0.00,WUHU216HW,2013-01-15 13:24:00,
2013-01-15 08:25:00,28.9,25.5,30.11,NE,45,0.0,0.0,87,0.00,,,0.00,WUHU216HW,2013-01-15 13:25:00,
2013-01-15 08:26:00,46.0,42.7,29.91,NE,45,0.0,0.0,88,0.00,,,0.00,WUHU216HW,2013-01-15 13:26:00,
2013-01-15 08:27:00,28.9,25.5,30.10,NE,45,0.0,0.0,87,0.00,,,0.00,WUHU216HW,2013-01-15 13:27:00,
2013-01-15 08:28:00,28.9,25.5,30.10,NE,45,0.0,0.0,87,0.00,,,0.00,WUHU216HW,2013-01-15 13:28:00,
2013-01-15 08:29:00,28.9,25.5,30.10,NE,45,0.0,0.0,87,0.00,,,0.00,WUHU216HW,2013-01-15 13:29:00,
2013-01-15 08:30:00,28.9,25.5,30.10,NE,45,0.0,0.0,87,0.00,,,0.00,WUHU216HW,2013-01-15 13:30:00,
2013-01-15 08:31:00,46.0,42.7,29.91,NE,45,0.0,0.0,88,0.00,,,0.00,WUHU216HW,2013-01-15 13:31:00,
2013-01-15 08:32:00,28.9,25.5,30.10,NE,45,0.0,0.0,87,0.00,,,0.00,WUHU216HW,2013-01-15 13:32:00,
2013-01-15 08:33:00,28.9,25.5,30.10,NE,45,0.0,0.0,87,0.00,,,0.00,WUHU216HW,2013-01-15 13:33:00,
2013-01-15 08:34:00,28.9,25.5,30.10,NE,45,0.0,0.0,87,0.00,,,0.00,WUHU216HW,2013-01-15 13:34:00,
2013-01-15 08:35:00,28.9,25.5,30.10,NE,45,0.0,0.0,87,0.00,,,0.00,WUHU216HW,2013-01-15 13:35:00,
2013-01-15 08:36:00,46.0,42.7,29.91,NNE,23,0.0,0.0,88,0.00,,,0.00,WUHU216HW,2013-01-15 13:36:00,
2013-01-15 08:37:00,28.9,25.5,30.10,NE,45,0.0,0.0,87,0.00,,,0.00,WUHU216HW,2013-01-15 13:37:00,
2013-01-15 08:38:00,28.9,25.5,30.10,NE,45,0.0,0.0,87,0.00,,,0.00,WUHU216HW,2013-01-15 13:38:00,
2013-01-15 08:39:00,28.9,25.5,30.10,NE,45,0.0,0.0,87,0.00,,,0.00,WUHU216HW,2013-01-15 13:39:00,
2013-01-15 08:40:00,28.9,25.5,30.10,NE,45,0.0,0.0,87,0.00,,,0.00,WUHU216HW,2013-01-15 13:40:00,
2013-01-15 08:41:00,46.0,42.7,29.91,ENE,68,0.0,0.0,88,0.00,,,0.00,WUHU216HW,2013-01-15 13:41:00,
2013-01-15 08:42:00,28.9,25.5,30.10,NE,45,0.0,0.0,87,0.00,,,0.00,WUHU216HW,2013-01-15 13:42:00,
2013-01-15 08:43:00,28.7,25.3,30.10,NE,45,0.0,0.0,87,0.00,,,0.00,WUHU216HW,2013-01-15 13:43:00,
2013-01-15 08:44:00,28.7,25.3,30.10,NE,45,0.0,0.0,87,0.00,,,0.00,WUHU216HW,2013-01-15 13:44:00,
2013-01-15 08:46:00,46.0,42.7,29.92,ENE,68,0.0,0.0,88,0.00,,,0.00,WUHU216HW,2013-01-15 13:46:00,
2013-01-15 08:47:00,28.7,25.3,30.11,NE,45,0.0,0.0,87,0.00,,,0.00,WUHU216HW,2013-01-15 13:47:00,
2013-01-15 08:48:00,28.7,25.3,30.11,NE,45,0.0,0.0,87,0.00,,,0.00,WUHU216HW,2013-01-15 13:48:00,
2013-01-15 08:50:00,28.7,25.3,30.11,NE,45,0.0,0.0,87,0.00,,,0.00,WUHU216HW,2013-01-15 13:50:00,
2013-01-15 08:51:00,46.0,42.7,29.92,NNE,23,0.0,0.0,88,0.00,,,0.00,WUHU216HW,2013-01-15 13:51:00,
2013-01-15 08:52:00,28.7,25.3,30.11,NE,45,0.0,0.0,87,0.00,,,0.00,WUHU216HW,2013-01-15 13:52:00,
2013-01-15 08:56:00,46.0,42.7,29.92,NE,45,0.0,0.0,88,0.00,,,0.00,WUHU216HW,2013-01-15 13:56:00,
2013-01-15 08:57:00,28.5,25.1,30.11,NE,45,0.0,0.0,87,0.00,,,0.00,WUHU216HW,2013-01-15 13:57:00,
2013-01-15 08:58:00,28.5,25.1,30.11,NE,45,0.0,0.0,87,0.00,,,0.00,WUHU216HW,2013-01-15 13:58:00,
2013-01-15 08:59:00,28.5,25.1,30.11,NE,45,0.0,0.0,87,0.00,,,0.00,WUHU216HW,2013-01-15 13:59:00,
2013-01-15 09:01:00,46.0,42.7,29.93,NE,45,0.0,0.0,88,0.00,,,0.00,WUHU216HW,2013-01-15 14:01:00,
2013-01-15 09:02:00,28.5,25.1,30.12,NE,45,0.0,0.0,87,0.00,,,0.00,WUHU216HW,2013-01-15 14:02:00,
2013-01-15 09:03:00,28.5,25.1,30.12,NE,45,0.0,0.0,87,0.00,,,0.00,WUHU216HW,2013-01-15 14:03:00,
2013-01-15 09:04:00,28.5,25.1,30.12,NE,45,0.0,0.0,87,0.00,,,0.00,WUHU216HW,2013-01-15 14:04:00,
2013-01-15 09:05:00,28.4,25.0,30.12,NE,45,0.0,0.0,87,0.00,,,0.00,WUHU216HW,2013-01-15 14:05:00,
2013-01-15 09:06:00,46.0,42.7,29.93,NE,45,0.0,0.0,88,0.00,,,0.00,WUHU216HW,2013-01-15 14:06:00,
2013-01-15 09:07:00,28.2,24.8,30.12,NE,45,0.0,0.0,87,0.00,,,0.00,WUHU216HW,2013-01-15 14:07:00,
2013-01-15 09:08:00,28.2,24.8,30.12,NE,45,0.0,0.0,87,0.00,,,0.00,WUHU216HW,2013-01-15 14:08:00,
2013-01-15 09:09:00,28.2,24.8,30.12,NE,45,0.0,0.0,87,0.00,,,0.00,WUHU216HW,2013-01-15 14:09:00,
2013-01-15 09:10:00,28.2,24.8,30.12,NE,45,0.0,0.0,87,0.00,,,0.00,WUHU216HW,2013-01-15 14:10:00,
2013-01-15 09:11:00,28.2,24.8,30.11,NE,45,0.0,0.0,87,0.00,,,0.00,WUHU216HW,2013-01-15 14:11:00,
2013-01-15 09:12:00,45.8,42.5,29.93,NNE,23,0.0,0.0,88,0.00,,,0.00,WUHU216HW,2013-01-15 14:12:00,
2013-01-15 09:13:00,28.2,24.8,30.11,NE,45,0.0,0.0,87,0.00,,,0.00,WUHU216HW,2013-01-15 14:13:00,
2013-01-15 09:14:00,28.2,24.8,30.11,NE,45,0.0,0.0,87,0.00,,,0.00,WUHU216HW,2013-01-15 14:14:00,
2013-01-15 09:15:00,28.2,24.8,30.12,NE,45,0.0,0.0,87,0.00,,,0.00,WUHU216HW,2013-01-15 14:15:00,
2013-01-15 09:16:00,28.2,24.8,30.12,NE,45,0.0,0.0,87,0.00,,,0.00,WUHU216HW,2013-01-15 14:16:00,
2013-01-15 09:17:00,45.6,42.3,29.93,NNW,338,0.0,0.0,88,0.00,,,0.00,WUHU216HW,2013-01-15 14:17:00,
2013-01-15 09:18:00,28.2,24.8,30.12,NE,45,0.0,0.0,87,0.00,,,0.00,WUHU216HW,2013-01-15 14:18:00,
2013-01-15 09:19:00,28.2,24.8,30.12,NE,45,0.0,0.0,87,0.00,,,0.00,WUHU216HW,2013-01-15 14:19:00,
2013-01-15 09:20:00,28.2,24.8,30.12,NE,45,0.0,0.0,87,0.00,,,0.00,WUHU216HW,2013-01-15 14:20:00,
2013-01-15 09:21:00,28.2,24.8,30.12,NE,45,0.0,0.0,87,0.00,,,0.00,WUHU216HW,2013-01-15 14:21:00,
2013-01-15 09:22:00,45.8,42.5,29.93,NW,315,0.0,0.0,88,0.00,,,0.00,WUHU216HW,2013-01-15 14:22:00,
2013-01-15 09:26:00,28.2,24.8,30.12,NE,45,0.0,0.0,87,0.00,,,0.00,WUHU216HW,2013-01-15 14:26:00,
2013-01-15 09:27:00,45.6,42.3,29.93,NW,315,0.0,0.0,88,0.00,,,0.00,WUHU216HW,2013-01-15 14:27:00,
2013-01-15 09:28:00,28.2,24.8,30.12,NE,45,0.0,0.0,87,0.00,,,0.00,WUHU216HW,2013-01-15 14:28:00,
2013-01-15 09:29:00,28.2,24.8,30.12,NE,45,0.0,0.0,87,0.00,,,0.00,WUHU216HW,2013-01-15 14:29:00,
2013-01-15 09:30:00,28.2,24.8,30.12,NE,45,0.0,0.0,87,0.00,,,0.00,WUHU216HW,2013-01-15 14:30:00,
2013-01-15 09:32:00,45.6,42.3,29.93,NE,45,0.0,0.6,88,0.00,,,0.00,WUHU216HW,2013-01-15 14:32:00,
2013-01-15 09:33:00,28.2,24.8,30.12,NE,45,0.0,0.0,87,0.00,,,0.00,WUHU216HW,2013-01-15 14:33:00,
2013-01-15 09:34:00,28.2,24.8,30.12,NE,45,0.0,0.0,87,0.00,,,0.00,WUHU216HW,2013-01-15 14:34:00,
2013-01-15 09:35:00,28.4,25.0,30.12,NE,45,0.0,0.0,87,0.00,,,0.00,WUHU216HW,2013-01-15 14:35:00,
2013-01-15 09:36:00,28.4,25.0,30.12,NE,45,0.0,0.0,87,0.00,,,0.00,WUHU216HW,2013-01-15 14:36:00,
2013-01-15 09:37:00,45.6,42.3,29.94,NW,315,0.0,0.6,88,0.00,,,0.00,WUHU216HW,2013-01-15 14:37:00,
2013-01-15 09:38:00,28.2,24.8,30.12,NE,45,0.0,0.0,87,0.00,,,0.00,WUHU216HW,2013-01-15 14:38:00,
2013-01-15 09:39:00,28.2,24.8,30.12,NE,45,0.0,0.0,87,0.00,,,0.00,WUHU216HW,2013-01-15 14:39:00,
2013-01-15 09:40:00,28.2,24.8,30.13,NE,45,0.0,0.0,87,0.00,,,0.00,WUHU216HW,2013-01-15 14:40:00,
2013-01-15 09:41:00,28.2,24.8,30.13,NE,45,0.0,0.0,87,0.00,,,0.00,WUHU216HW,2013-01-15 14:41:00,
2013-01-15 09:42:00,45.6,42.3,29.94,NNW,338,0.0,0.0,88,0.00,,,0.00,WUHU216HW,2013-01-15 14:42:00,
2013-01-15 09:48:00,45.6,42.3,29.94,NE,45,0.0,0.0,88,0.00,,,0.00,WUHU216HW,2013-01-15 14:48:00,
2013-01-15 09:53:00,45.6,42.3,29.94,West,270,0.0,0.0,88,0.00,,,0.00,WUHU216HW,2013-01-15 14:53:00,
2013-01-15 09:56:00,28.2,24.8,30.13,NE,45,0.0,0.0,87,0.00,,,0.00,WUHU216HW,2013-01-15 14:56:00,
2013-01-15 09:58:00,45.6,42.3,29.95,WNW,293,0.0,0.0,89,0.00,,,0.00,WUHU216HW,2013-01-15 14:58:00,
2013-01-15 09:59:00,28.2,24.8,30.12,NE,45,0.0,0.0,87,0.00,,,0.00,WUHU216HW,2013-01-15 14:59:00,
2013-01-15 10:00:00,28.2,24.8,30.12,NE,45,0.0,0.0,87,0.00,,,0.00,WUHU216HW,2013-01-15 15:00:00,
2013-01-15 10:01:00,28.2,24.8,30.12,NE,45,0.0,0.0,87,0.00,,,0.00,WUHU216HW,2013-01-15 15:01:00,
2013-01-15 10:02:00,28.2,24.8,30.12,NE,45,0.0,0.0,87,0.00,,,0.00,WUHU216HW,2013-01-15 15:02:00,
2013-01-15 10:03:00,45.6,42.3,29.94,South,180,0.0,0.0,88,0.00,,,0.00,WUHU216HW,2013-01-15 15:03:00,
2013-01-15 10:04:00,28.2,24.8,30.13,NE,45,0.0,0.0,87,0.00,,,0.00,WUHU216HW,2013-01-15 15:04:00,
2013-01-15 10:05:00,28.2,24.8,30.13,NE,45,0.0,0.0,87,0.00,,,0.00,WUHU216HW,2013-01-15 15:05:00,
2013-01-15 10:06:00,28.2,24.8,30.13,NE,45,0.0,0.0,87,0.00,,,0.00,WUHU216HW,2013-01-15 15:06:00,
2013-01-15 10:07:00,28.2,24.8,30.13,NE,45,0.0,0.0,87,0.00,,,0.00,WUHU216HW,2013-01-15 15:07:00,
2013-01-15 10:08:00,45.6,42.3,29.94,WSW,248,0.0,0.0,88,0.00,,,0.00,WUHU216HW,2013-01-15 15:08:00,
2013-01-15 10:09:00,28.2,24.8,30.13,NE,45,0.0,0.0,87,0.00,,,0.00,WUHU216HW,2013-01-15 15:09:00,
2013-01-15 10:10:00,28.2,24.8,30.13,NE,45,0.0,0.0,87,0.00,,,0.00,WUHU216HW,2013-01-15 15:10:00,
2013-01-15 10:11:00,28.0,24.6,30.13,NE,45,0.0,0.0,87,0.00,,,0.00,WUHU216HW,2013-01-15 15:11:00,
2013-01-15 10:12:00,28.0,24.6,30.13,NE,45,0.0,0.0,87,0.00,,,0.00,WUHU216HW,2013-01-15 15:12:00,
2013-01-15 10:13:00,45.5,42.1,29.94,NNW,338,0.0,0.0,88,0.00,,,0.00,WUHU216HW,2013-01-15 15:13:00,
2013-01-15 10:14:00,28.2,24.8,30.13,NE,45,0.0,0.0,87,0.00,,,0.00,WUHU216HW,2013-01-15 15:14:00,
2013-01-15 10:15:00,28.2,24.8,30.13,NE,45,0.0,0.0,87,0.00,,,0.00,WUHU216HW,2013-01-15 15:15:00,
2013-01-15 10:17:00,28.0,24.6,30.13,NE,45,0.0,0.0,87,0.00,,,0.00,WUHU216HW,2013-01-15 15:17:00,
2013-01-15 10:18:00,45.5,42.1,29.94,NE,45,0.0,0.0,88,0.00,,,0.00,WUHU216HW,2013-01-15 15:18:00,
2013-01-15 10:19:00,28.0,24.6,30.13,NE,45,0.0,0.0,87,0.00,,,0.00,WUHU216HW,2013-01-15 15:19:00,
2013-01-15 10:20:00,28.2,24.8,30.13,NE,45,0.0,0.0,87,0.00,,,0.00,WUHU216HW,2013-01-15 15:20:00,
2013-01-15 10:21:00,28.2,24.8,30.13,NE,45,0.0,0.0,87,0.00,,,0.00,WUHU216HW,2013-01-15 15:21:00,
2013-01-15 10:22:00,28.0,24.6,30.13,NE,45,0.0,0.0,87,0.00,,,0.00,WUHU216HW,2013-01-15 15:22:00,
2013-01-15 10:23:00,45.5,42.1,29.93,NNE,23,0.0,0.0,88,0.00,,,0.00,WUHU216HW,2013-01-15 15:23:00,
2013-01-15 10:25:00,28.0,24.6,30.13,NE,45,0.0,0.0,87,0.00,,,0.00,WUHU216HW,2013-01-15 15:25:00,
2013-01-15 10:26:00,28.0,24.6,30.14,NE,45,0.0,0.0,87,0.00,,,0.00,WUHU216HW,2013-01-15 15:26:00,
2013-01-15 10:27:00,28.0,24.6,30.14,NE,45,0.0,0.0,87,0.00,,,0.00,WUHU216HW,2013-01-15 15:27:00,
2013-01-15 10:28:00,45.5,42.1,29.93,NW,315,0.0,0.0,88,0.00,,,0.00,WUHU216HW,2013-01-15 15:28:00,
2013-01-15 10:29:00,28.0,24.6,30.14,NE,45,0.0,0.0,87,0.00,,,0.00,WUHU216HW,2013-01-15 15:29:00,
2013-01-15 10:30:00,28.0,24.6,30.14,NE,45,0.0,0.0,87,0.00,,,0.00,WUHU216HW,2013-01-15 15:30:00,
2013-01-15 10:31:00,28.0,24.6,30.14,NE,45,0.0,0.0,87,0.00,,,0.00,WUHU216HW,2013-01-15 15:31:00,
2013-01-15 10:33:00,45.3,42.0,29.93,North,0,0.0,0.8,88,0.00,,,0.00,WUHU216HW,2013-01-15 15:33:00,
2013-01-15 10:35:00,28.2,24.8,30.14,NE,45,0.0,0.0,87,0.00,,,0.00,WUHU216HW,2013-01-15 15:35:00,
2013-01-15 10:36:00,28.2,24.8,30.14,NE,45,0.0,0.0,87,0.00,,,0.00,WUHU216HW,2013-01-15 15:36:00,
2013-01-15 10:37:00,28.2,24.8,30.14,NE,45,0.0,0.0,87,0.00,,,0.00,WUHU216HW,2013-01-15 15:37:00,
2013-01-15 10:38:00,45.5,42.1,29.94,ENE,68,0.0,0.8,88,0.00,,,0.00,WUHU216HW,2013-01-15 15:38:00,
2013-01-15 10:39:00,28.2,24.8,30.14,NE,45,0.0,0.0,87,0.00,,,0.00,WUHU216HW,2013-01-15 15:39:00,
2013-01-15 10:40:00,28.2,24.8,30.14,NE,45,0.0,0.0,87,0.00,,,0.00,WUHU216HW,2013-01-15 15:40:00,
2013-01-15 10:41:00,28.0,24.6,30.14,NE,45,0.0,0.0,87,0.00,,,0.00,WUHU216HW,2013-01-15 15:41:00,
2013-01-15 10:42:00,28.0,24.6,30.14,NE,45,0.0,0.0,87,0.00,,,0.00,WUHU216HW,2013-01-15 15:42:00,
2013-01-15 10:43:00,45.3,42.0,29.94,ENE,68,0.0,0.0,88,0.00,,,0.00,WUHU216HW,2013-01-15 15:43:00,
2013-01-15 10:44:00,28.0,24.6,30.14,NE,45,0.0,0.0,87,0.00,,,0.00,WUHU216HW,2013-01-15 15:44:00,
2013-01-15 10:45:00,28.0,24.6,30.14,NE,45,0.0,0.0,87,0.00,,,0.00,WUHU216HW,2013-01-15 15:45:00,
2013-01-15 10:46:00,28.0,24.6,30.14,NE,45,0.0,0.0,87,0.00,,,0.00,WUHU216HW,2013-01-15 15:46:00,
2013-01-15 10:47:00,28.0,24.6,30.14,NE,45,0.0,0.0,87,0.00,,,0.00,WUHU216HW,2013-01-15 15:47:00,
2013-01-15 10:48:00,28.0,24.6,30.14,NE,45,0.0,0.0,87,0.00,,,0.00,WUHU216HW,2013-01-15 15:48:00,
2013-01-15 10:49:00,45.5,42.1,29.94,NNE,23,0.0,0.0,88,0.00,,,0.00,WUHU216HW,2013-01-15 15:49:00,
2013-01-15 10:50:00,28.0,24.6,30.15,NE,45,0.0,0.0,87,0.00,,,0.00,WUHU216HW,2013-01-15 15:50:00,
2013-01-15 10:54:00,45.3,42.0,29.94,ENE,68,0.0,0.0,88,0.00,,,0.00,WUHU216HW,2013-01-15 15:54:00,
2013-01-15 10:59:00,45.3,42.0,29.94,NE,45,0.0,0.0,88,0.00,,,0.00,WUHU216HW,2013-01-15 15:59:00,
2013-01-15 11:04:00,45.3,42.0,29.94,NW,315,0.0,0.0,88,0.00,,,0.00,WUHU216HW,2013-01-15 16:04:00,
2013-01-15 11:07:00,28.0,24.6,30.15,NE,45,0.0,0.0,87,0.00,,,0.00,WUHU216HW,2013-01-15 16:07:00,
2013-01-15 11:09:00,45.1,41.8,29.94,NNE,23,0.0,0.0,88,0.00,,,0.00,WUHU216HW,2013-01-15 16:09:00,
2013-01-15 11:10:00,28.0,24.6,30.16,NE,45,0.0,0.0,87,0.00,,,0.00,WUHU216HW,2013-01-15 16:10:00,
2013-01-15 11:11:00,28.0,24.6,30.16,NE,45,0.0,0.0,87,0.00,,,0.00,WUHU216HW,2013-01-15 16:11:00,
2013-01-15 11:12:00,28.0,24.6,30.15,NE,45,0.0,0.0,87,0.00,,,0.00,WUHU216HW,2013-01-15 16:12:00,
2013-01-15 11:13:00,28.0,24.6,30.15,NE,45,0.0,0.0,87,0.00,,,0.00,WUHU216HW,2013-01-15 16:13:00,
2013-01-15 11:14:00,45.5,42.1,29.94,NE,45,0.0,0.0,88,0.00,,,0.00,WUHU216HW,2013-01-15 16:14:00,
2013-01-15 11:15:00,28.0,24.6,30.15,NE,45,0.0,0.0,87,0.00,,,0.00,WUHU216HW,2013-01-15 16:15:00,
2013-01-15 11:16:00,28.0,24.6,30.15,NE,45,0.0,0.0,87,0.00,,,0.00,WUHU216HW,2013-01-15 16:16:00,
2013-01-15 11:17:00,28.0,24.6,30.15,NE,45,0.0,0.0,87,0.00,,,0.00,WUHU216HW,2013-01-15 16:17:00,
2013-01-15 11:18:00,28.0,24.6,30.15,NE,45,0.0,0.0,87,0.00,,,0.00,WUHU216HW,2013-01-15 16:18:00,
2013-01-15 11:19:00,45.5,42.1,29.93,WSW,248,0.0,0.0,88,0.00,,,0.00,WUHU216HW,2013-01-15 16:19:00,
2013-01-15 11:20:00,28.2,24.8,30.16,NE,45,0.0,0.0,87,0.00,,,0.00,WUHU216HW,2013-01-15 16:20:00,
2013-01-15 11:21:00,28.2,24.8,30.15,NE,45,0.0,0.0,87,0.00,,,0.00,WUHU216HW,2013-01-15 16:21:00,
2013-01-15 11:22:00,28.2,24.8,30.15,NE,45,0.0,0.0,87,0.00,,,0.00,WUHU216HW,2013-01-15 16:22:00,
2013-01-15 11:23:00,28.2,24.8,30.15,NE,45,0.0,0.0,87,0.00,,,0.00,WUHU216HW,2013-01-15 16:23:00,
2013-01-15 11:24:00,45.6,42.3,29.93,SE,135,0.0,0.0,88,0.00,,,0.00,WUHU216HW,2013-01-15 16:24:00,
2013-01-15 11:25:00,28.0,24.6,30.15,NE,45,0.0,0.0,87,0.00,,,0.00,WUHU216HW,2013-01-15 16:25:00,
2013-01-15 11:26:00,28.0,24.6,30.15,NE,45,0.0,0.0,87,0.00,,,0.00,WUHU216HW,2013-01-15 16:26:00,
2013-01-15 11:27:00,28.0,24.6,30.15,NE,45,0.0,0.0,87,0.00,,,0.00,WUHU216HW,2013-01-15 16:27:00,
2013-01-15 11:28:00,28.0,24.6,30.15,NE,45,0.0,0.0,87,0.00,,,0.00,WUHU216HW,2013-01-15 16:28:00,
2013-01-15 11:29:00,46.0,42.7,29.93,ENE,68,0.0,0.0,88,0.00,,,0.00,WUHU216HW,2013-01-15 16:29:00,
2013-01-15 11:30:00,28.0,24.6,30.15,NE,45,0.0,0.0,87,0.00,,,0.00,WUHU216HW,2013-01-15 16:30:00,
2013-01-15 11:31:00,28.0,24.6,30.15,NE,45,0.0,0.0,87,0.00,,,0.00,WUHU216HW,2013-01-15 16:31:00,
2013-01-15 11:32:00,28.0,24.6,30.15,NE,45,0.0,0.0,87,0.00,,,0.00,WUHU216HW,2013-01-15 16:32:00,
2013-01-15 11:33:00,28.0,24.6,30.15,NE,45,0.0,0.0,87,0.00,,,0.00,WUHU216HW,2013-01-15 16:33:00,
2013-01-15 11:34:00,46.0,42.7,29.93,ENE,68,0.0,0.0,88,0.00,,,0.00,WUHU216HW,2013-01-15 16:34:00,
2013-01-15 11:39:00,46.0,42.7,29.92,ENE,68,0.0,1.1,88,0.00,,,0.00,WUHU216HW,2013-01-15 16:39:00,
2013-01-15 11:44:00,46.0,42.7,29.92,NNE,23,0.0,1.1,88,0.00,,,0.00,WUHU216HW,2013-01-15 16:44:00,
2013-01-15 11:46:00,27.8,24.4,30.15,NE,45,0.0,0.0,88,0.00,,,0.00,WUHU216HW,2013-01-15 16:46:00,
2013-01-15 11:47:00,27.8,24.4,30.14,NE,45,0.0,0.0,88,0.00,,,0.00,WUHU216HW,2013-01-15 16:47:00,
2013-01-15 11:48:00,28.0,24.9,30.14,NE,45,0.0,0.0,88,0.00,,,0.00,WUHU216HW,2013-01-15 16:48:00,
2013-01-15 11:49:00,46.2,42.9,29.92,NE,45,0.0,0.0,88,0.00,,,0.00,WUHU216HW,2013-01-15 16:49:00,
2013-01-15 11:50:00,27.8,24.7,30.14,NE,45,0.0,0.0,88,0.00,,,0.00,WUHU216HW,2013-01-15 16:50:00,
2013-01-15 11:51:00,27.8,24.7,30.14,NE,45,0.0,0.0,88,0.00,,,0.00,WUHU216HW,2013-01-15 16:51:00,
2013-01-15 11:52:00,27.6,24.5,30.14,NE,45,0.0,0.0,88,0.00,,,0.00,WUHU216HW,2013-01-15 16:52:00,
2013-01-15 11:53:00,27.6,24.5,30.14,NE,45,0.0,0.0,88,0.00,,,0.00,WUHU216HW,2013-01-15 16:53:00,
2013-01-15 11:54:00,46.2,42.9,29.92,NE,45,0.0,0.0,88,0.00,,,0.00,WUHU216HW,2013-01-15 16:54:00,
2013-01-15 11:55:00,27.6,24.5,30.14,NE,45,0.0,0.0,88,0.00,,,0.00,WUHU216HW,2013-01-15 16:55:00,
2013-01-15 11:56:00,27.5,24.4,30.14,NE,45,0.0,0.0,88,0.00,,,0.00,WUHU216HW,2013-01-15 16:56:00,
2013-01-15 11:57:00,27.5,24.4,30.14,NE,45,0.0,0.0,88,0.00,,,0.00,WUHU216HW,2013-01-15 16:57:00,
2013-01-15 11:58:00,27.5,24.4,30.14,NE,45,0.0,0.0,88,0.00,,,0.00,WUHU216HW,2013-01-15 16:58:00,
2013-01-15 11:59:00,46.2,42.9,29.92,North,0,0.0,0.0,88,0.00,,,0.00,WUHU216HW,2013-01-15 16:59:00,
2013-01-15 12:00:00,27.5,24.4,30.15,NE,45,0.0,0.0,88,0.00,,,0.00,WUHU216HW,2013-01-15 17:00:00,
2013-01-15 12:01:00,27.5,24.4,30.14,NE,45,0.0,0.0,88,0.00,,,0.00,WUHU216HW,2013-01-15 17:01:00,
2013-01-15 12:02:00,27.5,24.4,30.14,NE,45,0.0,0.0,88,0.00,,,0.00,WUHU216HW,2013-01-15 17:02:00,
2013-01-15 12:03:00,27.5,24.4,30.14,NE,45,0.0,0.0,88,0.00,,,0.00,WUHU216HW,2013-01-15 17:03:00,
2013-01-15 12:04:00,46.4,43.0,29.92,NE,45,0.0,0.0,88,0.00,,,0.00,WUHU216HW,2013-01-15 17:04:00,
2013-01-15 12:05:00,27.5,24.4,30.14,NE,45,0.0,0.0,88,0.00,,,0.00,WUHU216HW,2013-01-15 17:05:00,
2013-01-15 12:06:00,27.5,24.4,30.14,NE,45,0.0,0.0,88,0.00,,,0.00,WUHU216HW,2013-01-15 17:06:00,
2013-01-15 12:07:00,27.5,24.4,30.14,NE,45,0.0,0.0,88,0.00,,,0.00,WUHU216HW,2013-01-15 17:07:00,
2013-01-15 12:08:00,27.5,24.4,30.14,NE,45,0.0,0.0,88,0.00,,,0.00,WUHU216HW,2013-01-15 17:08:00,
2013-01-15 12:09:00,46.4,43.0,29.91,NE,45,0.0,0.0,88,0.00,,,0.00,WUHU216HW,2013-01-15 17:09:00,
2013-01-15 12:10:00,27.5,24.4,30.15,NE,45,0.0,0.0,88,0.00,,,0.00,WUHU216HW,2013-01-15 17:10:00,
2013-01-15 12:11:00,27.5,24.4,30.15,NE,45,0.0,0.0,88,0.00,,,0.00,WUHU216HW,2013-01-15 17:11:00,
2013-01-15 12:12:00,27.5,24.4,30.15,NE,45,0.0,0.0,88,0.00,,,0.00,WUHU216HW,2013-01-15 17:12:00,
2013-01-15 12:13:00,27.5,24.4,30.16,NE,45,0.0,0.0,88,0.00,,,0.00,WUHU216HW,2013-01-15 17:13:00,
2013-01-15 12:14:00,46.2,42.9,29.91,NNW,338,0.0,0.0,88,0.00,,,0.00,WUHU216HW,2013-01-15 17:14:00,
2013-01-15 12:15:00,27.5,24.4,30.16,NE,45,0.0,0.0,88,0.00,,,0.00,WUHU216HW,2013-01-15 17:15:00,
2013-01-15 12:16:00,27.5,24.4,30.16,NE,45,0.0,0.0,87,0.00,,,0.00,WUHU216HW,2013-01-15 17:16:00,
2013-01-15 12:17:00,27.5,24.4,30.16,NE,45,0.0,0.0,87,0.00,,,0.00,WUHU216HW,2013-01-15 17:17:00,
2013-01-15 12:18:00,27.5,24.4,30.16,NE,45,0.0,0.0,87,0.00,,,0.00,WUHU216HW,2013-01-15 17:18:00,
2013-01-15 12:19:00,46.2,42.9,29.91,NE,45,0.0,0.0,88,0.00,,,0.00,WUHU216HW,2013-01-15 17:19:00,
2013-01-15 12:20:00,27.3,23.9,30.16,NE,45,0.0,0.0,87,0.00,,,0.00,WUHU216HW,2013-01-15 17:20:00,
2013-01-15 12:22:00,27.5,24.1,30.16,NE,45,0.0,0.0,87,0.00,,,0.00,WUHU216HW,2013-01-15 17:22:00,
2013-01-15 12:24:00,46.5,43.2,29.91,ESE,113,0.0,0.0,88,0.00,,,0.00,WUHU216HW,2013-01-15 17:24:00,
2013-01-15 12:25:00,27.5,24.1,30.16,NE,45,0.0,0.0,87,0.00,,,0.00,WUHU216HW,2013-01-15 17:25:00,
2013-01-15 12:26:00,27.3,23.9,30.16,NE,45,0.0,0.0,87,0.00,,,0.00,WUHU216HW,2013-01-15 17:26:00,
2013-01-15 12:27:00,27.3,23.9,30.16,NE,45,0.0,0.0,87,0.00,,,0.00,WUHU216HW,2013-01-15 17:27:00,
2013-01-15 12:28:00,27.3,23.9,30.16,NE,45,0.0,0.0,87,0.00,,,0.00,WUHU216HW,2013-01-15 17:28:00,
2013-01-15 12:29:00,46.7,43.4,29.90,NE,45,0.0,0.0,88,0.00,,,0.00,WUHU216HW,2013-01-15 17:29:00,
2013-01-15 12:30:00,27.3,23.9,30.16,NE,45,0.0,0.0,87,0.00,,,0.00,WUHU216HW,2013-01-15 17:30:00,
2013-01-15 12:31:00,27.3,23.9,30.16,NE,45,0.0,0.0,87,0.00,,,0.00,WUHU216HW,2013-01-15 17:31:00,
2013-01-15 12:32:00,27.3,23.9,30.16,NE,45,0.0,0.0,87,0.00,,,0.00,WUHU216HW,2013-01-15 17:32:00,
2013-01-15 12:33:00,27.3,23.9,30.16,NE,45,0.0,0.0,87,0.00,,,0.00,WUHU216HW,2013-01-15 17:33:00,
2013-01-15 12:34:00,46.7,43.4,29.90,ENE,68,0.0,0.0,87,0.00,,,0.00,WUHU216HW,2013-01-15 17:34:00,
2013-01-15 12:35:00,27.3,23.9,30.16,NE,45,0.0,0.0,87,0.00,,,0.00,WUHU216HW,2013-01-15 17:35:00,
2013-01-15 12:36:00,27.3,23.9,30.16,NE,45,0.0,0.0,87,0.00,,,0.00,WUHU216HW,2013-01-15 17:36:00,
2013-01-15 12:37:00,27.1,23.7,30.16,NE,45,0.0,0.0,87,0.00,,,0.00,WUHU216HW,2013-01-15 17:37:00,
2013-01-15 12:38:00,27.1,23.7,30.16,NE,45,0.0,0.0,87,0.00,,,0.00,WUHU216HW,2013-01-15 17:38:00,
2013-01-15 12:39:00,46.9,43.3,29.90,NNW,338,0.0,0.0,87,0.00,,,0.00,WUHU216HW,2013-01-15 17:39:00,
2013-01-15 12:40:00,27.1,23.7,30.16,NE,45,0.0,0.0,87,0.00,,,0.00,WUHU216HW,2013-01-15 17:40:00,
2013-01-15 12:41:00,27.1,23.7,30.16,NE,45,0.0,0.0,87,0.00,,,0.00,WUHU216HW,2013-01-15 17:41:00,
2013-01-15 12:42:00,27.1,23.7,30.16,NE,45,0.0,0.0,87,0.00,,,0.00,WUHU216HW,2013-01-15 17:42:00,
2013-01-15 12:43:00,27.1,23.7,30.16,NE,45,0.0,0.0,87,0.00,,,0.00,WUHU216HW,2013-01-15 17:43:00,
2013-01-15 12:44:00,46.9,43.3,29.89,NE,45,0.0,0.0,87,0.00,,,0.00,WUHU216HW,2013-01-15 17:44:00,
2013-01-15 12:45:00,27.1,23.7,30.16,NE,45,0.0,0.0,87,0.00,,,0.00,WUHU216HW,2013-01-15 17:45:00,
2013-01-15 12:46:00,26.9,23.5,30.16,NE,45,0.0,0.0,87,0.00,,,0.00,WUHU216HW,2013-01-15 17:46:00,
2013-01-15 12:47:00,26.9,23.5,30.16,NE,45,0.0,0.0,87,0.00,,,0.00,WUHU216HW,2013-01-15 17:47:00,
2013-01-15 12:49:00,47.1,43.4,29.89,NE,45,0.0,0.0,87,0.00,,,0.00,WUHU216HW,2013-01-15 17:49:00,
2013-01-15 12:50:00,26.7,23.3,30.16,NE,45,0.0,0.0,87,0.00,,,0.00,WUHU216HW,2013-01-15 17:50:00,
2013-01-15 12:51:00,26.7,23.3,30.16,NE,45,0.0,0.0,87,0.00,,,0.00,WUHU216HW,2013-01-15 17:51:00,
2013-01-15 12:52:00,26.7,23.3,30.16,NE,45,0.0,0.0,87,0.00,,,0.00,WUHU216HW,2013-01-15 17:52:00,
2013-01-15 12:53:00,26.7,23.3,30.16,NE,45,0.0,0.0,87,0.00,,,0.00,WUHU216HW,2013-01-15 17:53:00,
2013-01-15 12:54:00,47.3,43.6,29.89,NW,315,0.0,0.0,87,0.00,,,0.00,WUHU216HW,2013-01-15 17:54:00,
2013-01-15 12:59:00,47.3,43.6,29.89,NE,45,0.0,0.0,87,0.00,,,0.00,WUHU216HW,2013-01-15 17:59:00,
2013-01-15 13:04:00,47.3,43.6,29.89,NE,45,0.0,0.0,87,0.00,,,0.00,WUHU216HW,2013-01-15 18:04:00,
2013-01-15 13:09:00,47.3,43.6,29.89,NE,45,0.0,0.0,87,0.00,,,0.00,WUHU216HW,2013-01-15 18:09:00,
2013-01-15 13:11:00,26.7,23.1,30.17,NE,45,0.0,0.0,86,0.00,,,0.00,WUHU216HW,2013-01-15 18:11:00,
2013-01-15 13:12:00,26.7,23.1,30.17,NE,45,0.0,0.0,86,0.00,,,0.00,WUHU216HW,2013-01-15 18:12:00,
2013-01-15 13:13:00,26.7,23.1,30.17,NE,45,0.0,0.0,86,0.00,,,0.00,WUHU216HW,2013-01-15 18:13:00,
2013-01-15 13:14:00,47.4,43.8,29.89,NE,45,0.0,0.0,87,0.00,,,0.00,WUHU216HW,2013-01-15 18:14:00,
2013-01-15 13:15:00,26.7,23.1,30.17,NE,45,0.0,0.0,86,0.00,,,0.00,WUHU216HW,2013-01-15 18:15:00,
2013-01-15 13:17:00,26.6,22.9,30.16,NE,45,0.0,0.0,86,0.00,,,0.00,WUHU216HW,2013-01-15 18:17:00,
2013-01-15 13:18:00,26.6,22.9,30.16,NE,45,0.0,0.0,86,0.00,,,0.00,WUHU216HW,2013-01-15 18:18:00,
2013-01-15 13:19:00,47.6,43.6,29.88,ENE,68,0.0,0.0,86,0.00,,,0.00,WUHU216HW,2013-01-15 18:19:00,
2013-01-15 13:21:00,26.4,22.7,30.17,NE,45,0.0,0.0,86,0.00,,,0.00,WUHU216HW,2013-01-15 18:21:00,
2013-01-15 13:22:00,26.6,22.9,30.17,NE,45,0.0,0.0,86,0.00,,,0.00,WUHU216HW,2013-01-15 18:22:00,
2013-01-15 13:24:00,47.4,43.5,29.88,NE,45,0.0,0.0,86,0.00,,,0.00,WUHU216HW,2013-01-15 18:24:00,
2013-01-15 13:26:00,26.4,22.7,30.17,NE,45,0.0,0.0,86,0.00,,,0.00,WUHU216HW,2013-01-15 18:26:00,
2013-01-15 13:27:00,26.4,22.7,30.17,NE,45,0.0,0.0,86,0.00,,,0.00,WUHU216HW,2013-01-15 18:27:00,
2013-01-15 13:28:00,26.4,22.7,30.17,NE,45,0.0,0.0,86,0.00,,,0.00,WUHU216HW,2013-01-15 18:28:00,
2013-01-15 13:29:00,47.4,43.5,29.88,NE,45,0.0,0.0,86,0.00,,,0.00,WUHU216HW,2013-01-15 18:29:00,
2013-01-15 13:31:00,26.4,22.7,30.17,NE,45,0.0,0.0,86,0.00,,,0.00,WUHU216HW,2013-01-15 18:31:00,
2013-01-15 13:32:00,26.4,22.7,30.17,NE,45,0.0,0.0,86,0.00,,,0.00,WUHU216HW,2013-01-15 18:32:00,
2013-01-15 13:33:00,26.4,22.7,30.17,NE,45,0.0,0.0,86,0.00,,,0.00,WUHU216HW,2013-01-15 18:33:00,
2013-01-15 13:35:00,47.4,43.5,29.87,NNE,23,0.0,0.0,86,0.00,,,0.00,WUHU216HW,2013-01-15 18:35:00,
2013-01-15 13:36:00,26.4,22.7,30.17,NE,45,0.0,0.0,86,0.00,,,0.00,WUHU216HW,2013-01-15 18:36:00,
2013-01-15 13:37:00,26.4,22.7,30.17,NE,45,0.0,0.0,86,0.00,,,0.00,WUHU216HW,2013-01-15 18:37:00,
2013-01-15 13:38:00,26.4,22.7,30.17,NE,45,0.0,0.0,86,0.00,,,0.00,WUHU216HW,2013-01-15 18:38:00,
2013-01-15 13:39:00,26.4,22.7,30.17,NE,45,0.0,0.0,86,0.00,,,0.00,WUHU216HW,2013-01-15 18:39:00,
2013-01-15 13:40:00,47.8,43.8,29.87,NNE,23,0.0,0.0,87,0.00,,,0.00,WUHU216HW,2013-01-15 18:40:00,
2013-01-15 13:41:00,26.4,22.7,30.17,NE,45,0.0,0.0,86,0.00,,,0.00,WUHU216HW,2013-01-15 18:41:00,
2013-01-15 13:42:00,26.4,22.7,30.17,NE,45,0.0,0.0,86,0.00,,,0.00,WUHU216HW,2013-01-15 18:42:00,
2013-01-15 13:43:00,26.4,22.7,30.17,NE,45,0.0,0.0,86,0.00,,,0.00,WUHU216HW,2013-01-15 18:43:00,
2013-01-15 13:44:00,26.4,22.7,30.17,NE,45,0.0,0.0,86,0.00,,,0.00,WUHU216HW,2013-01-15 18:44:00,
2013-01-15 13:45:00,47.8,43.8,29.87,NNE,23,0.0,0.0,87,0.00,,,0.00,WUHU216HW,2013-01-15 18:45:00,
2013-01-15 13:46:00,26.2,22.5,30.16,NE,45,0.0,0.0,86,0.00,,,0.00,WUHU216HW,2013-01-15 18:46:00,
2013-01-15 13:47:00,26.2,22.5,30.16,NE,45,0.0,0.0,86,0.00,,,0.00,WUHU216HW,2013-01-15 18:47:00,
2013-01-15 13:48:00,26.2,22.5,30.16,NE,45,0.0,0.0,86,0.00,,,0.00,WUHU216HW,2013-01-15 18:48:00,
2013-01-15 13:49:00,26.2,22.5,30.17,NE,45,0.0,0.0,86,0.00,,,0.00,WUHU216HW,2013-01-15 18:49:00,
2013-01-15 13:50:00,47.8,43.8,29.87,NNE,23,0.0,0.0,86,0.00,,,0.00,WUHU216HW,2013-01-15 18:50:00,
2013-01-15 13:51:00,26.2,22.5,30.17,NE,45,0.0,0.0,86,0.00,,,0.00,WUHU216HW,2013-01-15 18:51:00,
2013-01-15 13:52:00,26.2,22.5,30.17,NE,45,0.0,0.0,86,0.00,,,0.00,WUHU216HW,2013-01-15 18:52:00,
2013-01-15 13:53:00,26.2,22.5,30.17,NE,45,0.0,0.0,86,0.00,,,0.00,WUHU216HW,2013-01-15 18:53:00,
2013-01-15 13:54:00,26.2,22.5,30.17,NE,45,0.0,0.0,86,0.00,,,0.00,WUHU216HW,2013-01-15 18:54:00,
2013-01-15 13:55:00,47.6,43.6,29.87,NE,45,0.0,0.0,86,0.00,,,0.00,WUHU216HW,2013-01-15 18:55:00,
2013-01-15 13:56:00,26.2,22.5,30.17,NE,45,0.0,0.0,86,0.00,,,0.00,WUHU216HW,2013-01-15 18:56:00,
2013-01-15 13:57:00,25.8,22.2,30.17,NE,45,0.0,0.0,86,0.00,,,0.00,WUHU216HW,2013-01-15 18:57:00,
2013-01-15 13:59:00,25.8,22.2,30.17,NE,45,0.0,0.0,86,0.00,,,0.00,WUHU216HW,2013-01-15 18:59:00,
2013-01-15 14:00:00,47.8,44.1,29.87,ENE,68,0.0,0.0,87,0.00,,,0.00,WUHU216HW,2013-01-15 19:00:00,
2013-01-15 14:01:00,25.8,22.2,30.17,NE,45,0.0,0.0,86,0.00,,,0.00,WUHU216HW,2013-01-15 19:01:00,
2013-01-15 14:02:00,25.8,22.2,30.17,NE,45,0.0,0.0,86,0.00,,,0.00,WUHU216HW,2013-01-15 19:02:00,
2013-01-15 14:03:00,25.8,22.2,30.17,NE,45,0.0,0.0,86,0.00,,,0.00,WUHU216HW,2013-01-15 19:03:00,
2013-01-15 14:04:00,25.8,22.2,30.17,NE,45,0.0,0.0,86,0.00,,,0.00,WUHU216HW,2013-01-15 19:04:00,
2013-01-15 14:05:00,47.8,44.1,29.87,North,0,0.0,0.0,87,0.00,,,0.00,WUHU216HW,2013-01-15 19:05:00,
2013-01-15 14:06:00,25.8,22.2,30.17,NE,45,0.0,0.0,86,0.00,,,0.00,WUHU216HW,2013-01-15 19:06:00,
2013-01-15 14:07:00,25.8,22.2,30.17,NE,45,0.0,0.0,86,0.00,,,0.00,WUHU216HW,2013-01-15 19:07:00,
2013-01-15 14:08:00,25.8,22.2,30.17,NE,45,0.0,0.0,86,0.00,,,0.00,WUHU216HW,2013-01-15 19:08:00,
2013-01-15 14:09:00,25.8,22.2,30.17,NE,45,0.0,0.0,86,0.00,,,0.00,WUHU216HW,2013-01-15 19:09:00,
2013-01-15 14:10:00,48.0,44.3,29.87,NE,45,0.0,0.0,87,0.00,,,0.00,WUHU216HW,2013-01-15 19:10:00,
2013-01-15 14:12:00,25.7,22.0,30.17,NE,45,0.0,0.0,86,0.00,,,0.00,WUHU216HW,2013-01-15 19:12:00,
2013-01-15 14:13:00,25.7,22.0,30.17,NE,45,0.0,0.0,86,0.00,,,0.00,WUHU216HW,2013-01-15 19:13:00,
2013-01-15 14:14:00,25.7,22.0,30.18,NE,45,0.0,0.0,86,0.00,,,0.00,WUHU216HW,2013-01-15 19:14:00,
2013-01-15 14:15:00,48.0,44.3,29.87,NE,45,0.0,0.0,87,0.00,,,0.00,WUHU216HW,2013-01-15 19:15:00,
2013-01-15 14:16:00,25.8,22.2,30.17,NE,45,0.0,0.0,86,0.00,,,0.00,WUHU216HW,2013-01-15 19:16:00,
2013-01-15 14:17:00,25.8,22.2,30.17,NE,45,0.0,0.0,86,0.00,,,0.00,WUHU216HW,2013-01-15 19:17:00,
2013-01-15 14:18:00,25.8,22.2,30.17,NE,45,0.0,0.0,86,0.00,,,0.00,WUHU216HW,2013-01-15 19:18:00,
2013-01-15 14:19:00,25.8,22.2,30.17,NE,45,0.0,0.0,86,0.00,,,0.00,WUHU216HW,2013-01-15 19:19:00,
2013-01-15 14:20:00,48.0,44.3,29.87,NE,45,0.0,0.0,87,0.00,,,0.00,WUHU216HW,2013-01-15 19:20:00,
2013-01-15 14:21:00,25.8,22.2,30.18,NE,45,0.0,0.0,86,0.00,,,0.00,WUHU216HW,2013-01-15 19:21:00,
2013-01-15 14:23:00,25.8,22.2,30.18,NE,45,0.0,0.0,86,0.00,,,0.00,WUHU216HW,2013-01-15 19:23:00,
2013-01-15 14:24:00,25.8,22.2,30.17,NE,45,0.0,0.0,86,0.00,,,0.00,WUHU216HW,2013-01-15 19:24:00,
2013-01-15 14:25:00,48.0,44.3,29.87,ENE,68,0.0,0.0,87,0.00,,,0.00,WUHU216HW,2013-01-15 19:25:00,
2013-01-15 14:30:00,48.0,44.3,29.87,NE,45,0.0,0.0,87,0.00,,,0.00,WUHU216HW,2013-01-15 19:30:00,
2013-01-15 14:32:00,25.8,22.2,30.18,NE,45,0.0,0.0,86,0.00,,,0.00,WUHU216HW,2013-01-15 19:32:00,
2013-01-15 14:33:00,25.8,22.2,30.18,NE,45,0.0,0.0,86,0.00,,,0.00,WUHU216HW,2013-01-15 19:33:00,
2013-01-15 14:34:00,25.8,22.2,30.18,NE,45,0.0,0.0,86,0.00,,,0.00,WUHU216HW,2013-01-15 19:34:00,
2013-01-15 14:35:00,47.8,44.1,29.87,NE,45,0.0,0.0,87,0.00,,,0.00,WUHU216HW,2013-01-15 19:35:00,
2013-01-15 14:36:00,25.7,22.0,30.18,NE,45,0.0,0.0,86,0.00,,,0.00,WUHU216HW,2013-01-15 19:36:00,
2013-01-15 14:37:00,25.7,22.0,30.18,NE,45,0.0,0.0,86,0.00,,,0.00,WUHU216HW,2013-01-15 19:37:00,
2013-01-15 14:40:00,47.8,44.1,29.87,East,90,0.0,0.0,87,0.00,,,0.00,WUHU216HW,2013-01-15 19:40:00,
2013-01-15 14:41:00,25.7,22.0,30.18,NE,45,0.0,0.0,86,0.00,,,0.00,WUHU216HW,2013-01-15 19:41:00,
2013-01-15 14:42:00,25.7,22.0,30.18,NE,45,0.0,0.0,86,0.00,,,0.00,WUHU216HW,2013-01-15 19:42:00,
2013-01-15 14:43:00,25.7,22.0,30.18,NE,45,0.0,0.0,86,0.00,,,0.00,WUHU216HW,2013-01-15 19:43:00,
2013-01-15 14:44:00,25.7,22.0,30.18,NE,45,0.0,0.0,86,0.00,,,0.00,WUHU216HW,2013-01-15 19:44:00,
2013-01-15 14:45:00,48.0,44.3,29.87,NE,45,0.0,0.0,87,0.00,,,0.00,WUHU216HW,2013-01-15 19:45:00,
2013-01-15 14:46:00,25.7,22.0,30.18,NE,45,0.0,0.0,86,0.00,,,0.00,WUHU216HW,2013-01-15 19:46:00,
2013-01-15 14:47:00,25.7,22.0,30.18,NE,45,0.0,0.0,86,0.00,,,0.00,WUHU216HW,2013-01-15 19:47:00,
2013-01-15 14:48:00,25.5,21.8,30.18,NE,45,0.0,0.0,86,0.00,,,0.00,WUHU216HW,2013-01-15 19:48:00,
2013-01-15 14:49:00,25.5,21.8,30.18,NE,45,0.0,0.0,86,0.00,,,0.00,WUHU216HW,2013-01-15 19:49:00,
2013-01-15 14:50:00,48.0,44.3,29.87,ENE,68,0.0,0.0,87,0.00,,,0.00,WUHU216HW,2013-01-15 19:50:00,
2013-01-15 14:51:00,25.5,21.8,30.18,NE,45,0.0,0.0,86,0.00,,,0.00,WUHU216HW,2013-01-15 19:51:00,
2013-01-15 14:52:00,25.5,21.8,30.18,NE,45,0.0,0.0,86,0.00,,,0.00,WUHU216HW,2013-01-15 19:52:00,
2013-01-15 14:53:00,25.5,21.8,30.19,NE,45,0.0,0.0,86,0.00,,,0.00,WUHU216HW,2013-01-15 19:53:00,
2013-01-15 14:54:00,25.5,21.8,30.19,NE,45,0.0,0.0,86,0.00,,,0.00,WUHU216HW,2013-01-15 19:54:00,
2013-01-15 14:55:00,47.8,44.1,29.87,NE,45,0.0,0.0,87,0.00,,,0.00,WUHU216HW,2013-01-15 19:55:00,
2013-01-15 14:56:00,25.5,21.8,30.19,NE,45,0.0,0.0,86,0.00,,,0.00,WUHU216HW,2013-01-15 19:56:00,
2013-01-15 14:58:00,25.3,21.7,30.18,NE,45,0.0,0.0,86,0.00,,,0.00,WUHU216HW,2013-01-15 19:58:00,
2013-01-15 14:59:00,25.3,21.7,30.19,NE,45,0.0,0.0,86,0.00,,,0.00,WUHU216HW,2013-01-15 19:59:00,
2013-01-15 15:00:00,47.8,44.1,29.87,ENE,68,0.0,0.0,87,0.00,,,0.00,WUHU216HW,2013-01-15 20:00:00,
2013-01-15 15:01:00,25.3,21.7,30.18,NE,45,0.0,0.0,86,0.00,,,0.00,WUHU216HW,2013-01-15 20:01:00,
2013-01-15 15:02:00,25.3,21.7,30.19,NE,45,0.0,0.0,86,0.00,,,0.00,WUHU216HW,2013-01-15 20:02:00,
2013-01-15 15:03:00,25.3,21.7,30.19,NE,45,0.0,0.0,86,0.00,,,0.00,WUHU216HW,2013-01-15 20:03:00,
2013-01-15 15:04:00,25.3,21.7,30.19,NE,45,0.0,0.0,86,0.00,,,0.00,WUHU216HW,2013-01-15 20:04:00,
2013-01-15 15:05:00,47.8,44.1,29.87,ENE,68,0.0,0.0,87,0.00,,,0.00,WUHU216HW,2013-01-15 20:05:00,
2013-01-15 15:06:00,25.3,21.7,30.18,NE,45,0.0,0.0,86,0.00,,,0.00,WUHU216HW,2013-01-15 20:06:00,
2013-01-15 15:07:00,25.3,21.7,30.18,NE,45,0.0,0.0,86,0.00,,,0.00,WUHU216HW,2013-01-15 20:07:00,
2013-01-15 15:08:00,25.3,21.7,30.18,NE,45,0.0,0.0,86,0.00,,,0.00,WUHU216HW,2013-01-15 20:08:00,
2013-01-15 15:09:00,25.3,21.7,30.18,NE,45,0.0,0.0,86,0.00,,,0.00,WUHU216HW,2013-01-15 20:09:00,
2013-01-15 15:10:00,47.8,44.1,29.87,NE,45,0.0,0.0,87,0.00,,,0.00,WUHU216HW,2013-01-15 20:10:00,
2013-01-15 15:11:00,25.3,21.7,30.18,NE,45,0.0,0.0,86,0.00,,,0.00,WUHU216HW,2013-01-15 20:11:00,
2013-01-15 15:12:00,25.3,21.7,30.19,NE,45,0.0,0.0,86,0.00,,,0.00,WUHU216HW,2013-01-15 20:12:00,
2013-01-15 15:13:00,25.3,21.7,30.18,NE,45,0.0,0.0,86,0.00,,,0.00,WUHU216HW,2013-01-15 20:13:00,
2013-01-15 15:14:00,25.3,21.7,30.19,NE,45,0.0,0.0,86,0.00,,,0.00,WUHU216HW,2013-01-15 20:14:00,
2013-01-15 15:15:00,47.8,44.1,29.87,NE,45,0.0,0.0,87,0.00,,,0.00,WUHU216HW,2013-01-15 20:15:00,
2013-01-15 15:16:00,25.3,21.7,30.19,NE,45,0.0,0.0,86,0.00,,,0.00,WUHU216HW,2013-01-15 20:16:00,
2013-01-15 15:17:00,25.3,21.7,30.19,NE,45,0.0,0.0,86,0.00,,,0.00,WUHU216HW,2013-01-15 20:17:00,
2013-01-15 15:18:00,25.3,21.7,30.19,NE,45,0.0,0.0,86,0.00,,,0.00,WUHU216HW,2013-01-15 20:18:00,
2013-01-15 15:19:00,25.3,21.7,30.19,NE,45,0.0,0.0,86,0.00,,,0.00,WUHU216HW,2013-01-15 20:19:00,
2013-01-15 15:20:00,47.8,44.1,29.87,ENE,68,0.0,0.0,87,0.00,,,0.00,WUHU216HW,2013-01-15 20:20:00,
2013-01-15 15:21:00,25.3,21.7,30.19,NE,45,0.0,0.0,86,0.00,,,0.00,WUHU216HW,2013-01-15 20:21:00,
2013-01-15 15:22:00,25.3,21.7,30.19,NE,45,0.0,0.0,86,0.00,,,0.00,WUHU216HW,2013-01-15 20:22:00,
2013-01-15 15:23:00,25.3,21.7,30.19,NE,45,0.0,0.0,86,0.00,,,0.00,WUHU216HW,2013-01-15 20:23:00,
2013-01-15 15:24:00,25.3,21.7,30.19,NE,45,0.0,0.0,86,0.00,,,0.00,WUHU216HW,2013-01-15 20:24:00,
2013-01-15 15:25:00,47.8,44.1,29.87,ENE,68,0.0,0.0,87,0.00,,,0.00,WUHU216HW,2013-01-15 20:25:00,
2013-01-15 15:26:00,25.3,21.7,30.20,NE,45,0.0,0.0,86,0.00,,,0.00,WUHU216HW,2013-01-15 20:26:00,
2013-01-15 15:27:00,25.3,21.7,30.20,NE,45,0.0,0.0,86,0.00,,,0.00,WUHU216HW,2013-01-15 20:27:00,
2013-01-15 15:28:00,25.3,21.7,30.20,NE,45,0.0,0.0,86,0.00,,,0.00,WUHU216HW,2013-01-15 20:28:00,
2013-01-15 15:29:00,25.3,21.7,30.20,NE,45,0.0,0.0,86,0.00,,,0.00,WUHU216HW,2013-01-15 20:29:00,
2013-01-15 15:30:00,47.8,44.1,29.87,NE,45,0.0,0.0,87,0.00,,,0.00,WUHU216HW,2013-01-15 20:30:00,
2013-01-15 15:32:00,25.3,21.7,30.20,NE,45,0.0,0.0,86,0.00,,,0.00,WUHU216HW,2013-01-15 20:32:00,
2013-01-15 15:33:00,25.3,21.7,30.20,NE,45,0.0,0.0,86,0.00,,,0.00,WUHU216HW,2013-01-15 20:33:00,
2013-01-15 15:34:00,25.3,21.7,30.20,NE,45,0.0,0.0,86,0.00,,,0.00,WUHU216HW,2013-01-15 20:34:00,
2013-01-15 15:35:00,25.3,21.7,30.21,NE,45,0.0,0.0,86,0.00,,,0.00,WUHU216HW,2013-01-15 20:35:00,
2013-01-15 15:36:00,47.8,44.1,29.87,NE,45,0.0,0.0,87,0.00,,,0.00,WUHU216HW,2013-01-15 20:36:00,
2013-01-15 15:37:00,25.3,21.7,30.21,NE,45,0.0,0.0,86,0.00,,,0.00,WUHU216HW,2013-01-15 20:37:00,
2013-01-15 15:38:00,25.3,21.7,30.21,NE,45,0.0,0.0,87,0.00,,,0.00,WUHU216HW,2013-01-15 20:38:00,
2013-01-15 15:40:00,25.3,21.7,30.21,NE,45,0.0,0.0,87,0.00,,,0.00,WUHU216HW,2013-01-15 20:40:00,
2013-01-15 15:41:00,47.4,43.8,29.86,NE,45,0.0,0.0,87,0.00,,,0.00,WUHU216HW,2013-01-15 20:41:00,
2013-01-15 15:42:00,25.5,22.1,30.21,NE,45,0.0,0.0,87,0.00,,,0.00,WUHU216HW,2013-01-15 20:42:00,
2013-01-15 15:45:00,25.5,22.1,30.21,NE,45,0.0,0.0,87,0.00,,,0.00,WUHU216HW,2013-01-15 20:45:00,
2013-01-15 15:46:00,47.4,43.8,29.87,NE,45,0.0,0.0,87,0.00,,,0.00,WUHU216HW,2013-01-15 20:46:00,
2013-01-15 15:47:00,25.7,22.3,30.21,NE,45,0.0,0.0,87,0.00,,,0.00,WUHU216HW,2013-01-15 20:47:00,
2013-01-15 15:48:00,25.7,22.3,30.21,NE,45,0.0,0.0,87,0.00,,,0.00,WUHU216HW,2013-01-15 20:48:00,
2013-01-15 15:49:00,25.5,22.1,30.22,NE,45,0.0,0.0,87,0.00,,,0.00,WUHU216HW,2013-01-15 20:49:00,
2013-01-15 15:50:00,25.5,22.1,30.22,NE,45,0.0,0.0,87,0.00,,,0.00,WUHU216HW,2013-01-15 20:50:00,
2013-01-15 15:51:00,47.4,43.8,29.87,NE,45,0.0,0.0,87,0.00,,,0.00,WUHU216HW,2013-01-15 20:51:00,
2013-01-15 15:52:00,25.5,22.1,30.22,NE,45,0.0,0.0,87,0.00,,,0.00,WUHU216HW,2013-01-15 20:52:00,
2013-01-15 15:53:00,25.5,22.1,30.22,NE,45,0.0,0.0,87,0.00,,,0.00,WUHU216HW,2013-01-15 20:53:00,
2013-01-15 15:54:00,25.7,22.3,30.22,NE,45,0.0,0.0,87,0.00,,,0.00,WUHU216HW,2013-01-15 20:54:00,
2013-01-15 15:55:00,25.7,22.3,30.22,NE,45,0.0,0.0,87,0.00,,,0.00,WUHU216HW,2013-01-15 20:55:00,
2013-01-15 15:56:00,47.4,43.8,29.88,NE,45,0.0,0.0,87,0.00,,,0.00,WUHU216HW,2013-01-15 20:56:00,
2013-01-15 15:57:00,25.8,22.5,30.22,NE,45,0.0,0.0,87,0.00,,,0.00,WUHU216HW,2013-01-15 20:57:00,
2013-01-15 15:58:00,25.8,22.5,30.22,NE,45,0.0,0.0,87,0.00,,,0.00,WUHU216HW,2013-01-15 20:58:00,
2013-01-15 15:59:00,25.8,22.5,30.22,NE,45,0.0,0.0,87,0.00,,,0.00,WUHU216HW,2013-01-15 20:59:00,
2013-01-15 16:00:00,25.8,22.5,30.23,NE,45,0.0,0.0,87,0.00,,,0.00,WUHU216HW,2013-01-15 21:00:00,
2013-01-15 16:01:00,47.4,43.8,29.88,NNE,23,0.0,0.0,87,0.00,,,0.00,WUHU216HW,2013-01-15 21:01:00,
2013-01-15 16:02:00,25.8,22.5,30.23,NE,45,0.0,0.0,87,0.00,,,0.00,WUHU216HW,2013-01-15 21:02:00,
2013-01-15 16:03:00,25.8,22.5,30.23,NE,45,0.0,0.0,87,0.00,,,0.00,WUHU216HW,2013-01-15 21:03:00,
2013-01-15 16:04:00,25.8,22.5,30.23,NE,45,0.0,0.0,87,0.00,,,0.00,WUHU216HW,2013-01-15 21:04:00,
2013-01-15 16:05:00,25.8,22.5,30.23,NE,45,0.0,0.0,87,0.00,,,0.00,WUHU216HW,2013-01-15 21:05:00,
2013-01-15 16:06:00,47.3,43.6,29.88,NNE,23,0.0,0.0,87,0.00,,,0.00,WUHU216HW,2013-01-15 21:06:00,
2013-01-15 16:07:00,25.8,22.5,30.23,NE,45,0.0,0.0,87,0.00,,,0.00,WUHU216HW,2013-01-15 21:07:00,
2013-01-15 16:08:00,26.0,22.6,30.23,NE,45,0.0,0.0,87,0.00,,,0.00,WUHU216HW,2013-01-15 21:08:00,
2013-01-15 16:09:00,26.0,22.6,30.23,NE,45,0.0,0.0,87,0.00,,,0.00,WUHU216HW,2013-01-15 21:09:00,
2013-01-15 16:10:00,26.0,22.6,30.24,NE,45,0.0,0.0,87,0.00,,,0.00,WUHU216HW,2013-01-15 21:10:00,
2013-01-15 16:11:00,47.1,43.4,29.88,NE,45,0.0,0.0,87,0.00,,,0.00,WUHU216HW,2013-01-15 21:11:00,
2013-01-15 16:12:00,26.2,22.8,30.24,NE,45,0.0,0.0,87,0.00,,,0.00,WUHU216HW,2013-01-15 21:12:00,
2013-01-15 16:13:00,26.2,22.8,30.24,NE,45,0.0,0.0,87,0.00,,,0.00,WUHU216HW,2013-01-15 21:13:00,
2013-01-15 16:14:00,26.2,22.8,30.24,NE,45,0.0,0.0,87,0.00,,,0.00,WUHU216HW,2013-01-15 21:14:00,
2013-01-15 16:15:00,26.2,22.8,30.24,NE,45,0.0,0.0,87,0.00,,,0.00,WUHU216HW,2013-01-15 21:15:00,
2013-01-15 16:16:00,46.9,43.3,29.88,NE,45,0.0,0.0,87,0.00,,,0.00,WUHU216HW,2013-01-15 21:16:00,
2013-01-15 16:21:00,46.9,43.3,29.88,ENE,68,0.0,0.0,87,0.00,,,0.00,WUHU216HW,2013-01-15 21:21:00,
2013-01-15 16:22:00,26.2,22.8,30.25,NE,45,0.0,0.0,87,0.00,,,0.00,WUHU216HW,2013-01-15 21:22:00,
2013-01-15 16:24:00,26.2,22.8,30.25,NE,45,0.0,0.0,87,0.00,,,0.00,WUHU216HW,2013-01-15 21:24:00,
2013-01-15 16:25:00,26.2,22.8,30.25,NE,45,0.0,0.0,87,0.00,,,0.00,WUHU216HW,2013-01-15 21:25:00,
2013-01-15 16:26:00,46.9,43.3,29.88,NE,45,0.0,0.0,87,0.00,,,0.00,WUHU216HW,2013-01-15 21:26:00,
2013-01-15 16:27:00,26.2,22.8,30.26,NE,45,0.0,0.0,87,0.00,,,0.00,WUHU216HW,2013-01-15 21:27:00,
2013-01-15 16:28:00,26.2,22.8,30.25,NE,45,0.0,0.0,87,0.00,,,0.00,WUHU216HW,2013-01-15 21:28:00,
2013-01-15 16:29:00,26.2,22.8,30.25,NE,45,0.0,0.0,87,0.00,,,0.00,WUHU216HW,2013-01-15 21:29:00,
2013-01-15 16:30:00,26.2,22.8,30.25,NE,45,0.0,0.0,87,0.00,,,0.00,WUHU216HW,2013-01-15 21:30:00,
2013-01-15 16:31:00,46.7,43.1,29.88,ENE,68,0.0,0.0,87,0.00,,,0.00,WUHU216HW,2013-01-15 21:31:00,
2013-01-15 16:32:00,26.2,22.8,30.26,NE,45,0.0,0.0,87,0.00,,,0.00,WUHU216HW,2013-01-15 21:32:00,
2013-01-15 16:33:00,26.2,22.8,30.26,NE,45,0.0,0.0,87,0.00,,,0.00,WUHU216HW,2013-01-15 21:33:00,
2013-01-15 16:34:00,26.4,23.0,30.26,NE,45,0.0,0.0,87,0.00,,,0.00,WUHU216HW,2013-01-15 21:34:00,
2013-01-15 16:35:00,26.4,23.0,30.25,NE,45,0.0,0.0,87,0.00,,,0.00,WUHU216HW,2013-01-15 21:35:00,
2013-01-15 16:36:00,26.4,23.0,30.26,NE,45,0.0,0.0,87,0.00,,,0.00,WUHU216HW,2013-01-15 21:36:00,
2013-01-15 16:37:00,46.5,43.2,29.88,NNE,23,0.0,0.0,88,0.00,,,0.00,WUHU216HW,2013-01-15 21:37:00,
2013-01-15 16:38:00,26.4,23.0,30.26,NE,45,0.0,0.0,87,0.00,,,0.00,WUHU216HW,2013-01-15 21:38:00,
2013-01-15 16:39:00,26.4,23.0,30.26,NE,45,0.0,0.0,87,0.00,,,0.00,WUHU216HW,2013-01-15 21:39:00,
2013-01-15 16:40:00,26.4,23.0,30.26,NE,45,0.0,0.0,87,0.00,,,0.00,WUHU216HW,2013-01-15 21:40:00,
2013-01-15 16:41:00,26.7,23.3,30.26,NE,45,0.0,0.0,87,0.00,,,0.00,WUHU216HW,2013-01-15 21:41:00,
2013-01-15 16:42:00,46.5,43.2,29.87,NNE,23,0.0,0.0,88,0.00,,,0.00,WUHU216HW,2013-01-15 21:42:00,
2013-01-15 16:43:00,26.7,23.3,30.26,NNE,23,0.0,0.0,87,0.00,,,0.00,WUHU216HW,2013-01-15 21:43:00,
2013-01-15 16:44:00,26.7,23.3,30.26,NNE,23,0.0,0.0,87,0.00,,,0.00,WUHU216HW,2013-01-15 21:44:00,
2013-01-15 16:45:00,26.7,23.3,30.26,NNE,23,0.0,0.0,87,0.00,,,0.00,WUHU216HW,2013-01-15 21:45:00,
2013-01-15 16:46:00,26.7,23.3,30.26,NNE,23,0.0,0.0,87,0.00,,,0.00,WUHU216HW,2013-01-15 21:46:00,
2013-01-15 16:47:00,46.5,43.2,29.88,NNE,23,0.0,0.0,88,0.00,,,0.00,WUHU216HW,2013-01-15 21:47:00,
2013-01-15 16:49:00,26.9,23.5,30.26,NNE,23,0.0,0.0,87,0.00,,,0.00,WUHU216HW,2013-01-15 21:49:00,
2013-01-15 16:50:00,26.9,23.5,30.26,NNE,23,0.0,0.0,87,0.00,,,0.00,WUHU216HW,2013-01-15 21:50:00,
2013-01-15 16:51:00,26.9,23.5,30.26,NNE,23,0.0,0.0,87,0.00,,,0.00,WUHU216HW,2013-01-15 21:51:00,
2013-01-15 16:52:00,46.5,43.2,29.87,ENE,68,0.0,0.0,88,0.00,,,0.00,WUHU216HW,2013-01-15 21:52:00,
2013-01-15 16:53:00,26.9,23.5,30.26,NNE,23,0.0,0.0,87,0.00,,,0.00,WUHU216HW,2013-01-15 21:53:00,
2013-01-15 16:54:00,27.1,23.7,30.26,NNE,23,0.0,0.0,87,0.00,,,0.00,WUHU216HW,2013-01-15 21:54:00,
2013-01-15 16:57:00,46.2,42.9,29.87,ENE,68,0.0,0.0,88,0.00,,,0.00,WUHU216HW,2013-01-15 21:57:00,
2013-01-15 17:02:00,46.0,42.7,29.87,NE,45,0.0,0.0,88,0.00,,,0.00,WUHU216HW,2013-01-15 22:02:00,
2013-01-15 17:06:00,27.5,24.1,30.27,ENE,68,0.0,0.0,87,0.00,,,0.00,WUHU216HW,2013-01-15 22:06:00,
2013-01-15 17:07:00,46.0,42.7,29.87,East,90,0.0,0.0,88,0.00,,,0.00,WUHU216HW,2013-01-15 22:07:00,
2013-01-15 17:08:00,27.5,24.1,30.27,ENE,68,0.0,0.0,87,0.00,,,0.00,WUHU216HW,2013-01-15 22:08:00,
2013-01-15 17:09:00,27.3,23.9,30.27,ENE,68,0.0,0.0,87,0.00,,,0.00,WUHU216HW,2013-01-15 22:09:00,
2013-01-15 17:10:00,27.3,23.9,30.27,ENE,68,0.0,0.0,87,0.00,,,0.00,WUHU216HW,2013-01-15 22:10:00,
2013-01-15 17:11:00,27.3,23.9,30.27,NE,45,0.0,0.0,87,0.00,,,0.00,WUHU216HW,2013-01-15 22:11:00,
2013-01-15 17:12:00,46.0,42.7,29.87,NNE,23,0.0,0.0,88,0.00,,,0.00,WUHU216HW,2013-01-15 22:12:00,
2013-01-15 17:13:00,27.5,24.1,30.27,ENE,68,0.0,0.0,87,0.00,,,0.00,WUHU216HW,2013-01-15 22:13:00,
2013-01-15 17:14:00,27.5,24.1,30.27,ENE,68,0.0,0.0,87,0.00,,,0.00,WUHU216HW,2013-01-15 22:14:00,
2013-01-15 17:15:00,27.6,24.2,30.27,NE,45,0.0,0.0,87,0.00,,,0.00,WUHU216HW,2013-01-15 22:15:00,
2013-01-15 17:16:00,27.6,24.2,30.27,NE,45,0.0,0.0,87,0.00,,,0.00,WUHU216HW,2013-01-15 22:16:00,
2013-01-15 17:17:00,46.0,42.7,29.87,NNE,23,0.0,0.0,88,0.00,,,0.00,WUHU216HW,2013-01-15 22:17:00,
2013-01-15 17:18:00,27.6,24.2,30.27,NE,45,0.0,0.0,87,0.00,,,0.00,WUHU216HW,2013-01-15 22:18:00,
2013-01-15 17:19:00,27.6,24.2,30.27,NE,45,0.0,0.0,87,0.00,,,0.00,WUHU216HW,2013-01-15 22:19:00,
2013-01-15 17:20:00,27.6,24.2,30.27,NE,45,0.0,0.0,87,0.00,,,0.00,WUHU216HW,2013-01-15 22:20:00,
2013-01-15 17:21:00,27.8,24.4,30.27,NE,45,0.0,0.0,87,0.00,,,0.00,WUHU216HW,2013-01-15 22:21:00,
2013-01-15 17:22:00,46.2,42.9,29.87,NE,45,0.0,0.0,88,0.00,,,0.00,WUHU216HW,2013-01-15 22:22:00,
2013-01-15 17:23:00,27.8,24.4,30.27,NE,45,0.0,0.0,87,0.00,,,0.00,WUHU216HW,2013-01-15 22:23:00,
2013-01-15 17:24:00,28.0,24.6,30.27,NE,45,0.0,0.0,87,0.00,,,0.00,WUHU216HW,2013-01-15 22:24:00,
2013-01-15 17:25:00,28.0,24.6,30.27,NE,45,0.0,0.0,87,0.00,,,0.00,WUHU216HW,2013-01-15 22:25:00,
2013-01-15 17:26:00,28.0,24.6,30.28,NE,45,0.0,0.0,87,0.00,,,0.00,WUHU216HW,2013-01-15 22:26:00,
2013-01-15 17:27:00,46.0,42.7,29.87,ENE,68,0.0,0.0,88,0.00,,,0.00,WUHU216HW,2013-01-15 22:27:00,
2013-01-15 17:28:00,28.4,25.0,30.28,ENE,68,0.0,0.0,87,0.00,,,0.00,WUHU216HW,2013-01-15 22:28:00,
2013-01-15 17:29:00,28.4,25.0,30.28,ENE,68,0.0,0.0,87,0.00,,,0.00,WUHU216HW,2013-01-15 22:29:00,
2013-01-15 17:30:00,28.4,25.0,30.27,ENE,68,0.0,0.0,87,0.00,,,0.00,WUHU216HW,2013-01-15 22:30:00,
2013-01-15 17:31:00,28.5,25.1,30.27,ENE,68,0.0,0.0,87,0.00,,,0.00,WUHU216HW,2013-01-15 22:31:00,
2013-01-15 17:32:00,28.7,25.3,30.27,ENE,68,0.0,0.0,87,0.00,,,0.00,WUHU216HW,2013-01-15 22:32:00,
2013-01-15 17:33:00,46.0,42.7,29.87,ENE,68,0.0,0.0,88,0.00,,,0.00,WUHU216HW,2013-01-15 22:33:00,
2013-01-15 17:34:00,28.7,25.3,30.27,ENE,68,0.0,0.0,87,0.00,,,0.00,WUHU216HW,2013-01-15 22:34:00,
2013-01-15 17:35:00,28.7,25.3,30.27,ENE,68,0.0,0.0,87,0.00,,,0.00,WUHU216HW,2013-01-15 22:35:00,
2013-01-15 17:36:00,28.7,25.3,30.27,ENE,68,0.0,0.0,87,0.00,,,0.00,WUHU216HW,2013-01-15 22:36:00,
2013-01-15 17:37:00,28.9,25.5,30.27,ENE,68,0.0,0.0,87,0.00,,,0.00,WUHU216HW,2013-01-15 22:37:00,
2013-01-15 17:38:00,46.0,42.7,29.86,NE,45,0.0,0.0,88,0.00,,,0.00,WUHU216HW,2013-01-15 22:38:00,
2013-01-15 17:39:00,29.1,25.7,30.28,ENE,68,0.0,0.0,87,0.00,,,0.00,WUHU216HW,2013-01-15 22:39:00,
2013-01-15 17:40:00,29.1,25.7,30.28,ENE,68,0.0,0.0,87,0.00,,,0.00,WUHU216HW,2013-01-15 22:40:00,
2013-01-15 17:41:00,29.3,25.9,30.27,ENE,68,0.0,0.0,87,0.00,,,0.00,WUHU216HW,2013-01-15 22:41:00,
2013-01-15 17:42:00,29.3,25.9,30.27,ENE,68,0.0,0.0,87,0.00,,,0.00,WUHU216HW,2013-01-15 22:42:00,
2013-01-15 17:43:00,46.0,42.7,29.86,ENE,68,0.0,0.0,88,0.00,,,0.00,WUHU216HW,2013-01-15 22:43:00,
2013-01-15 17:44:00,29.4,26.0,30.27,ENE,68,0.0,0.0,87,0.00,,,0.00,WUHU216HW,2013-01-15 22:44:00,
2013-01-15 17:45:00,29.8,26.4,30.27,North,0,0.0,0.0,87,0.00,,,0.00,WUHU216HW,2013-01-15 22:45:00,
2013-01-15 17:46:00,29.8,26.4,30.27,North,0,0.0,0.0,87,0.00,,,0.00,WUHU216HW,2013-01-15 22:46:00,
2013-01-15 17:47:00,29.8,26.4,30.27,North,0,0.0,0.0,87,0.00,,,0.00,WUHU216HW,2013-01-15 22:47:00,
2013-01-15 17:48:00,46.0,42.7,29.86,NE,45,0.0,0.0,88,0.00,,,0.00,WUHU216HW,2013-01-15 22:48:00,
2013-01-15 17:49:00,30.3,26.9,30.27,NE,45,0.0,0.0,87,0.00,,,0.00,WUHU216HW,2013-01-15 22:49:00,
2013-01-15 17:50:00,30.3,26.9,30.28,NE,45,0.0,0.0,87,0.00,,,0.00,WUHU216HW,2013-01-15 22:50:00,
2013-01-15 17:51:00,30.3,26.9,30.28,NE,45,0.0,0.0,87,0.00,,,0.00,WUHU216HW,2013-01-15 22:51:00,
2013-01-15 17:52:00,30.3,26.9,30.28,NE,45,0.0,0.0,87,0.00,,,0.00,WUHU216HW,2013-01-15 22:52:00,
2013-01-15 17:53:00,46.0,42.7,29.86,NE,45,0.0,0.0,88,0.00,,,0.00,WUHU216HW,2013-01-15 22:53:00,
2013-01-15 17:55:00,30.7,27.3,30.28,WNW,293,0.0,0.0,87,0.00,,,0.00,WUHU216HW,2013-01-15 22:55:00,
2013-01-15 17:56:00,30.7,27.3,30.28,NNE,23,0.0,0.0,87,0.00,,,0.00,WUHU216HW,2013-01-15 22:56:00,
2013-01-15 17:57:00,30.7,27.3,30.28,NNE,23,0.0,0.0,87,0.00,,,0.00,WUHU216HW,2013-01-15 22:57:00,
2013-01-15 17:58:00,46.0,42.7,29.86,NE,45,0.0,0.0,88,0.00,,,0.00,WUHU216HW,2013-01-15 22:58:00,
2013-01-15 17:59:00,30.9,27.2,30.28,ENE,68,0.0,0.0,86,0.00,,,0.00,WUHU216HW,2013-01-15 22:59:00,
2013-01-15 18:03:00,46.0,42.7,29.86,ENE,68,0.0,0.0,88,0.00,,,0.00,WUHU216HW,2013-01-15 23:03:00,
2013-01-15 18:06:00,31.2,27.6,30.28,ENE,68,0.0,0.0,86,0.00,,,0.00,WUHU216HW,2013-01-15 23:06:00,
2013-01-15 18:07:00,31.6,27.9,30.29,ENE,68,0.0,0.0,86,0.00,,,0.00,WUHU216HW,2013-01-15 23:07:00,
2013-01-15 18:08:00,46.0,42.7,29.86,ENE,68,0.0,0.0,88,0.00,,,0.00,WUHU216HW,2013-01-15 23:08:00,
2013-01-15 18:09:00,31.6,27.9,30.29,NE,45,0.0,0.0,86,0.00,,,0.00,WUHU216HW,2013-01-15 23:09:00,
2013-01-15 18:10:00,31.6,27.9,30.29,NE,45,0.0,0.0,86,0.00,,,0.00,WUHU216HW,2013-01-15 23:10:00,
2013-01-15 18:11:00,32.0,28.3,30.29,NE,45,0.0,0.0,86,0.00,,,0.00,WUHU216HW,2013-01-15 23:11:00,
2013-01-15 18:12:00,32.0,28.3,30.29,NE,45,0.0,0.0,86,0.00,,,0.00,WUHU216HW,2013-01-15 23:12:00,
2013-01-15 18:13:00,46.0,42.7,29.86,NE,45,0.0,0.0,88,0.00,,,0.00,WUHU216HW,2013-01-15 23:13:00,
2013-01-15 18:14:00,32.3,28.3,30.29,NNE,23,0.0,0.0,85,0.00,,,0.00,WUHU216HW,2013-01-15 23:14:00,
2013-01-15 18:15:00,32.3,28.3,30.29,NNE,23,0.0,0.0,85,0.00,,,0.00,WUHU216HW,2013-01-15 23:15:00,
2013-01-15 18:16:00,32.7,28.6,30.29,NNE,23,0.0,0.0,85,0.00,,,0.00,WUHU216HW,2013-01-15 23:16:00,
2013-01-15 18:17:00,32.7,28.6,30.29,NNE,23,0.0,0.0,85,0.00,,,0.00,WUHU216HW,2013-01-15 23:17:00,
2013-01-15 18:18:00,46.0,42.7,29.86,NNW,338,0.0,0.0,89,0.00,,,0.00,WUHU216HW,2013-01-15 23:18:00,
2013-01-15 18:20:00,33.4,29.0,30.29,NE,45,0.0,0.0,84,0.00,,,0.00,WUHU216HW,2013-01-15 23:20:00,
2013-01-15 18:21:00,33.4,29.0,30.29,NE,45,0.0,0.0,84,0.00,,,0.00,WUHU216HW,2013-01-15 23:21:00,
2013-01-15 18:22:00,33.9,29.2,30.29,NE,45,0.0,0.0,83,0.00,,,0.00,WUHU216HW,2013-01-15 23:22:00,
2013-01-15 18:23:00,46.0,42.7,29.87,NE,45,0.0,0.0,89,0.00,,,0.00,WUHU216HW,2013-01-15 23:23:00,
2013-01-15 18:24:00,34.5,29.8,30.29,NE,45,0.0,0.0,83,0.00,,,0.00,WUHU216HW,2013-01-15 23:24:00,
2013-01-15 18:25:00,34.5,29.8,30.29,NE,45,0.0,0.0,83,0.00,,,0.00,WUHU216HW,2013-01-15 23:25:00,
2013-01-15 18:26:00,34.5,29.8,30.29,NE,45,0.0,0.0,83,0.00,,,0.00,WUHU216HW,2013-01-15 23:26:00,
2013-01-15 18:27:00,34.5,29.8,30.30,NNE,23,0.0,0.0,82,0.00,,,0.00,WUHU216HW,2013-01-15 23:27:00,
2013-01-15 18:28:00,46.0,42.7,29.87,NE,45,0.0,0.0,89,0.00,,,0.00,WUHU216HW,2013-01-15 23:28:00,
2013-01-15 18:29:00,34.8,29.5,30.29,NE,45,0.0,0.0,81,0.00,,,0.00,WUHU216HW,2013-01-15 23:29:00,
2013-01-15 18:30:00,34.8,29.5,30.29,NE,45,0.0,0.0,81,0.00,,,0.00,WUHU216HW,2013-01-15 23:30:00,
2013-01-15 18:31:00,35.2,29.6,30.29,ENE,68,0.0,0.0,80,0.00,,,0.00,WUHU216HW,2013-01-15 23:31:00,
2013-01-15 18:32:00,35.2,29.6,30.29,ENE,68,0.0,0.0,80,0.00,,,0.00,WUHU216HW,2013-01-15 23:32:00,
2013-01-15 18:33:00,45.8,42.8,29.87,NE,45,0.0,0.0,89,0.00,,,0.00,WUHU216HW,2013-01-15 23:33:00,
2013-01-15 18:34:00,35.2,29.6,30.30,NE,45,0.0,0.0,80,0.00,,,0.00,WUHU216HW,2013-01-15 23:34:00,
2013-01-15 18:35:00,35.4,29.8,30.30,WNW,293,0.0,0.0,80,0.00,,,0.00,WUHU216HW,2013-01-15 23:35:00,
2013-01-15 18:36:00,35.4,29.8,30.30,WNW,293,0.0,0.0,80,0.00,,,0.00,WUHU216HW,2013-01-15 23:36:00,
2013-01-15 18:37:00,35.6,29.6,30.30,NE,45,0.0,0.0,79,0.00,,,0.00,WUHU216HW,2013-01-15 23:37:00,
2013-01-15 18:38:00,46.0,43.0,29.87,NW,315,0.0,0.0,89,0.00,,,0.00,WUHU216HW,2013-01-15 23:38:00,
2013-01-15 18:39:00,35.6,29.6,30.30,NE,45,0.0,0.0,78,0.00,,,0.00,WUHU216HW,2013-01-15 23:39:00,
2013-01-15 18:40:00,35.6,29.6,30.30,NE,45,0.0,0.0,78,0.00,,,0.00,WUHU216HW,2013-01-15 23:40:00,
2013-01-15 18:41:00,35.6,29.6,30.30,NE,45,0.0,0.0,78,0.00,,,0.00,WUHU216HW,2013-01-15 23:41:00,
2013-01-15 18:43:00,46.0,43.0,29.87,North,0,0.0,0.0,89,0.00,,,0.00,WUHU216HW,2013-01-15 23:43:00,
2013-01-15 18:48:00,45.8,42.8,29.87,NNE,23,0.0,0.0,89,0.00,,,0.00,WUHU216HW,2013-01-15 23:48:00,
2013-01-15 18:54:00,46.0,43.0,29.87,NNE,23,0.0,0.0,89,0.00,,,0.00,WUHU216HW,2013-01-15 23:54:00,
2013-01-15 18:55:00,37.2,30.6,30.30,NE,45,0.0,0.0,77,0.00,,,0.00,WUHU216HW,2013-01-15 23:55:00,
2013-01-15 18:56:00,37.5,30.6,30.30,NNE,23,0.0,0.0,76,0.00,,,0.00,WUHU216HW,2013-01-15 23:56:00,
2013-01-15 18:57:00,37.5,30.6,30.30,NNE,23,0.0,0.0,76,0.00,,,0.00,WUHU216HW,2013-01-15 23:57:00,
2013-01-15 18:58:00,37.5,30.6,30.30,East,90,0.0,0.0,76,0.00,,,0.00,WUHU216HW,2013-01-15 23:58:00,
2013-01-15 18:59:00,46.0,43.0,29.87,NNE,23,0.0,0.0,89,0.00,,,0.00,WUHU216HW,2013-01-15 23:59:00,
2013-01-15 19:00:00,37.5,30.6,30.30,East,90,0.0,0.0,76,0.00,,,0.00,WUHU216HW,2013-01-16 00:00:00,
2013-01-15 19:01:00,37.5,30.6,30.30,SSW,203,0.0,0.0,74,0.00,,,0.00,WUHU216HW,2013-01-16 00:01:00,
2013-01-15 19:02:00,37.5,30.6,30.30,SSW,203,0.0,0.0,74,0.00,,,0.00,WUHU216HW,2013-01-16 00:02:00,
2013-01-15 19:03:00,37.2,29.0,30.30,SSE,158,0.0,0.0,72,0.00,,,0.00,WUHU216HW,2013-01-16 00:03:00,
2013-01-15 19:04:00,45.8,42.8,29.87,West,270,0.0,0.0,89,0.00,,,0.00,WUHU216HW,2013-01-16 00:04:00,
2013-01-15 19:05:00,37.5,29.7,30.30,NNE,23,0.0,0.0,73,0.00,,,0.00,WUHU216HW,2013-01-16 00:05:00,
2013-01-15 19:09:00,45.8,42.8,29.87,NE,45,0.0,0.0,89,0.00,,,0.00,WUHU216HW,2013-01-16 00:09:00,
2013-01-15 19:11:00,37.7,29.8,30.29,ENE,68,3.1,3.1,71,0.00,,,0.00,WUHU216HW,2013-01-16 00:11:00,
2013-01-15 19:12:00,37.7,29.8,30.29,ENE,68,3.1,3.1,71,0.00,,,0.00,WUHU216HW,2013-01-16 00:12:00,
2013-01-15 19:13:00,37.7,29.8,30.29,ENE,68,3.1,3.1,71,0.00,,,0.00,WUHU216HW,2013-01-16 00:13:00,
2013-01-15 19:14:00,45.8,42.8,29.86,NE,45,0.0,0.0,89,0.00,,,0.00,WUHU216HW,2013-01-16 00:14:00,
2013-01-15 19:15:00,38.1,29.8,30.29,NW,315,0.0,3.1,72,0.00,,,0.00,WUHU216HW,2013-01-16 00:15:00,
2013-01-15 19:16:00,38.1,29.8,30.29,NW,315,0.0,3.1,72,0.00,,,0.00,WUHU216HW,2013-01-16 00:16:00,
2013-01-15 19:17:00,38.1,29.8,30.29,NW,315,0.0,3.1,72,0.00,,,0.00,WUHU216HW,2013-01-16 00:17:00,
2013-01-15 19:19:00,45.8,42.8,29.86,ENE,68,0.0,0.0,89,0.00,,,0.00,WUHU216HW,2013-01-16 00:19:00,
2013-01-15 19:20:00,38.4,29.8,30.29,WNW,293,0.0,3.1,71,0.00,,,0.00,WUHU216HW,2013-01-16 00:20:00,
2013-01-15 19:21:00,38.4,29.8,30.29,WNW,293,0.0,3.1,71,0.00,,,0.00,WUHU216HW,2013-01-16 00:21:00,
2013-01-15 19:22:00,38.6,30.0,30.29,NNE,23,0.0,3.1,71,0.00,,,0.00,WUHU216HW,2013-01-16 00:22:00,
2013-01-15 19:23:00,38.6,30.0,30.29,NNE,23,0.0,3.1,71,0.00,,,0.00,WUHU216HW,2013-01-16 00:23:00,
2013-01-15 19:24:00,45.8,42.8,29.86,North,0,0.0,0.0,89,0.00,,,0.00,WUHU216HW,2013-01-16 00:24:00,
2013-01-15 19:26:00,38.8,29.8,30.29,NE,45,0.0,0.0,69,0.00,,,0.00,WUHU216HW,2013-01-16 00:26:00,
2013-01-15 19:27:00,38.8,29.8,30.29,NE,45,0.0,0.0,69,0.00,,,0.00,WUHU216HW,2013-01-16 00:27:00,
2013-01-15 19:28:00,38.8,29.8,30.29,NE,45,0.0,0.0,69,0.00,,,0.00,WUHU216HW,2013-01-16 00:28:00,
2013-01-15 19:29:00,45.8,42.8,29.86,NE,45,0.0,0.0,89,0.00,,,0.00,WUHU216HW,2013-01-16 00:29:00,
2013-01-15 19:30:00,38.8,29.8,30.29,East,90,0.0,0.0,69,0.00,,,0.00,WUHU216HW,2013-01-16 00:30:00,
2013-01-15 19:31:00,39.0,29.6,30.29,ENE,68,0.0,0.0,69,0.00,,,0.00,WUHU216HW,2013-01-16 00:31:00,
2013-01-15 19:32:00,39.0,29.6,30.29,ENE,68,0.0,0.0,69,0.00,,,0.00,WUHU216HW,2013-01-16 00:32:00,
2013-01-15 19:34:00,45.6,42.6,29.86,NE,45,0.0,0.0,89,0.00,,,0.00,WUHU216HW,2013-01-16 00:34:00,
2013-01-15 19:36:00,39.3,29.2,30.29,ENE,68,0.0,0.0,67,0.00,,,0.00,WUHU216HW,2013-01-16 00:36:00,
2013-01-15 19:37:00,39.3,29.2,30.29,NE,45,0.0,0.0,67,0.00,,,0.00,WUHU216HW,2013-01-16 00:37:00,
2013-01-15 19:38:00,39.3,29.2,30.29,NE,45,0.0,0.0,67,0.00,,,0.00,WUHU216HW,2013-01-16 00:38:00,
2013-01-15 19:39:00,45.6,42.6,29.85,NE,45,0.0,0.0,89,0.00,,,0.00,WUHU216HW,2013-01-16 00:39:00,
2013-01-15 19:41:00,39.3,29.2,30.29,North,0,0.0,0.0,66,0.00,,,0.00,WUHU216HW,2013-01-16 00:41:00,
2013-01-15 19:42:00,39.3,29.2,30.29,ENE,68,1.5,1.5,67,0.00,,,0.00,WUHU216HW,2013-01-16 00:42:00,
2013-01-15 19:43:00,39.3,29.2,30.29,ENE,68,1.5,1.5,67,0.00,,,0.00,WUHU216HW,2013-01-16 00:43:00,
2013-01-15 19:44:00,45.8,42.8,29.85,ENE,68,0.0,0.0,89,0.00,,,0.00,WUHU216HW,2013-01-16 00:44:00,
2013-01-15 19:45:00,39.7,28.8,30.29,ENE,68,0.0,1.5,65,0.00,,,0.00,WUHU216HW,2013-01-16 00:45:00,
2013-01-15 19:46:00,39.5,27.9,30.29,NE,45,3.5,3.5,63,0.00,,,0.00,WUHU216HW,2013-01-16 00:46:00,
2013-01-15 19:47:00,39.5,27.9,30.29,NE,45,3.5,3.5,63,0.00,,,0.00,WUHU216HW,2013-01-16 00:47:00,
2013-01-15 19:48:00,39.5,27.9,30.29,NE,45,0.0,3.5,65,0.00,,,0.00,WUHU216HW,2013-01-16 00:48:00,
2013-01-15 19:49:00,45.8,42.8,29.85,NE,45,0.0,0.0,89,0.00,,,0.00,WUHU216HW,2013-01-16 00:49:00,
2013-01-15 19:50:00,39.9,28.6,30.29,East,90,0.0,3.5,64,0.00,,,0.00,WUHU216HW,2013-01-16 00:50:00,
2013-01-15 19:51:00,39.9,28.6,30.29,East,90,0.0,3.5,64,0.00,,,0.00,WUHU216HW,2013-01-16 00:51:00,
2013-01-15 19:52:00,39.9,28.6,30.29,East,90,0.0,3.5,64,0.00,,,0.00,WUHU216HW,2013-01-16 00:52:00,
2013-01-15 19:53:00,40.2,29.3,30.29,NNE,23,0.0,3.5,65,0.00,,,0.00,WUHU216HW,2013-01-16 00:53:00,
2013-01-15 19:54:00,45.8,42.8,29.85,NE,45,0.0,0.0,89,0.00,,,0.00,WUHU216HW,2013-01-16 00:54:00,
2013-01-15 19:59:00,45.8,42.8,29.85,NE,45,0.0,0.0,89,0.00,,,0.00,WUHU216HW,2013-01-16 00:59:00,
2013-01-15 20:01:00,40.8,28.4,30.29,ENE,68,0.0,0.0,61,0.00,,,0.00,WUHU216HW,2013-01-16 01:01:00,
2013-01-15 20:02:00,40.8,28.4,30.29,ENE,68,0.0,0.0,61,0.00,,,0.00,WUHU216HW,2013-01-16 01:02:00,
2013-01-15 20:03:00,40.8,28.4,30.28,East,90,1.5,1.5,57,0.00,,,0.00,WUHU216HW,2013-01-16 01:03:00,
2013-01-15 20:04:00,46.0,43.0,29.85,ENE,68,0.0,0.0,89,0.00,,,0.00,WUHU216HW,2013-01-16 01:04:00,
2013-01-15 20:06:00,40.8,28.4,30.28,NNW,338,0.0,1.5,61,0.00,,,0.00,WUHU216HW,2013-01-16 01:06:00,
2013-01-15 20:07:00,40.8,28.4,30.28,NNW,338,0.0,1.5,61,0.00,,,0.00,WUHU216HW,2013-01-16 01:07:00,
2013-01-15 20:09:00,46.0,43.0,29.85,NE,45,0.0,0.0,89,0.00,,,0.00,WUHU216HW,2013-01-16 01:09:00,
2013-01-15 20:10:00,41.9,28.5,30.28,ENE,68,3.1,3.1,59,0.00,,,0.00,WUHU216HW,2013-01-16 01:10:00,
2013-01-15 20:11:00,41.9,28.5,30.28,ENE,68,3.1,3.1,59,0.00,,,0.00,WUHU216HW,2013-01-16 01:11:00,
2013-01-15 20:12:00,42.4,28.2,30.28,ESE,113,0.0,3.1,57,0.00,,,0.00,WUHU216HW,2013-01-16 01:12:00,
2013-01-15 20:13:00,42.4,28.2,30.28,ESE,113,0.0,3.1,57,0.00,,,0.00,WUHU216HW,2013-01-16 01:13:00,
2013-01-15 20:14:00,45.8,42.8,29.85,NE,45,0.0,0.0,89,0.00,,,0.00,WUHU216HW,2013-01-16 01:14:00,
2013-01-15 20:15:00,42.2,28.4,30.28,ESE,113,2.9,3.1,58,0.00,,,0.00,WUHU216HW,2013-01-16 01:15:00,
2013-01-15 20:16:00,42.6,28.3,30.28,SE,135,0.0,3.1,57,0.00,,,0.00,WUHU216HW,2013-01-16 01:16:00,
2013-01-15 20:17:00,42.6,28.3,30.28,SE,135,0.0,3.1,57,0.00,,,0.00,WUHU216HW,2013-01-16 01:17:00,
2013-01-15 20:18:00,42.6,28.3,30.28,East,90,0.0,3.1,58,0.00,,,0.00,WUHU216HW,2013-01-16 01:18:00,
2013-01-15 20:19:00,46.0,43.0,29.85,NE,45,0.0,0.0,89,0.00,,,0.00,WUHU216HW,2013-01-16 01:19:00,
2013-01-15 20:20:00,42.6,28.3,30.28,East,90,0.0,3.1,58,0.00,,,0.00,WUHU216HW,2013-01-16 01:20:00,
2013-01-15 20:21:00,43.3,29.9,30.28,ENE,68,4.4,4.4,59,0.00,,,0.00,WUHU216HW,2013-01-16 01:21:00,
2013-01-15 20:22:00,43.5,28.3,30.27,ENE,68,0.0,4.4,55,0.00,,,0.00,WUHU216HW,2013-01-16 01:22:00,
2013-01-15 20:23:00,43.5,28.3,30.27,ENE,68,0.0,4.4,55,0.00,,,0.00,WUHU216HW,2013-01-16 01:23:00,
2013-01-15 20:24:00,46.0,43.0,29.85,NE,45,0.0,0.0,89,0.00,,,0.00,WUHU216HW,2013-01-16 01:24:00,
2013-01-15 20:26:00,43.7,28.5,30.27,ESE,113,0.0,4.4,55,0.00,,,0.00,WUHU216HW,2013-01-16 01:26:00,
2013-01-15 20:28:00,43.7,28.5,30.27,East,90,0.0,4.4,55,0.00,,,0.00,WUHU216HW,2013-01-16 01:28:00,
2013-01-15 20:29:00,46.0,43.0,29.85,NNE,23,0.0,0.0,89,0.00,,,0.00,WUHU216HW,2013-01-16 01:29:00,
2013-01-15 20:32:00,44.9,29.2,30.27,East,90,0.0,4.4,54,0.00,,,0.00,WUHU216HW,2013-01-16 01:32:00,
2013-01-15 20:33:00,45.3,30.4,30.27,East,90,0.0,0.0,56,0.00,,,0.00,WUHU216HW,2013-01-16 01:33:00,
2013-01-15 20:34:00,46.0,43.0,29.84,NE,45,0.0,0.0,89,0.00,,,0.00,WUHU216HW,2013-01-16 01:34:00,
2013-01-15 20:35:00,45.3,30.4,30.27,NE,45,2.2,2.2,55,0.00,,,0.00,WUHU216HW,2013-01-16 01:35:00,
2013-01-15 20:36:00,45.3,30.4,30.27,NE,45,2.2,2.2,55,0.00,,,0.00,WUHU216HW,2013-01-16 01:36:00,
2013-01-15 20:37:00,45.6,29.4,30.27,NNW,338,0.0,2.2,53,0.00,,,0.00,WUHU216HW,2013-01-16 01:37:00,
2013-01-15 20:39:00,46.0,43.0,29.83,NE,45,0.0,0.0,89,0.00,,,0.00,WUHU216HW,2013-01-16 01:39:00,
2013-01-15 20:42:00,46.0,29.3,30.27,ENE,68,0.0,2.2,52,0.00,,,0.00,WUHU216HW,2013-01-16 01:42:00,
2013-01-15 20:43:00,46.0,29.3,30.28,ENE,68,0.0,2.2,52,0.00,,,0.00,WUHU216HW,2013-01-16 01:43:00,
2013-01-15 20:44:00,46.0,43.0,29.83,NE,45,0.0,0.0,89,0.00,,,0.00,WUHU216HW,2013-01-16 01:44:00,
2013-01-15 20:47:00,45.6,28.5,30.27,East,90,0.0,2.2,55,0.00,,,0.00,WUHU216HW,2013-01-16 01:47:00,
2013-01-15 20:49:00,46.0,43.0,29.84,NE,45,0.0,0.0,89,0.00,,,0.00,WUHU216HW,2013-01-16 01:49:00,
2013-01-15 20:51:00,46.7,29.5,30.27,ENE,68,0.0,3.5,51,0.00,,,0.00,WUHU216HW,2013-01-16 01:51:00,
2013-01-15 20:52:00,47.1,29.4,30.27,ENE,68,0.0,3.5,50,0.00,,,0.00,WUHU216HW,2013-01-16 01:52:00,
2013-01-15 20:53:00,47.1,29.4,30.27,ENE,68,0.0,3.5,50,0.00,,,0.00,WUHU216HW,2013-01-16 01:53:00,
2013-01-15 20:54:00,46.0,43.0,29.83,NE,45,0.0,0.0,89,0.00,,,0.00,WUHU216HW,2013-01-16 01:54:00,
2013-01-15 20:55:00,46.9,30.1,30.27,NE,45,0.0,3.5,52,0.00,,,0.00,WUHU216HW,2013-01-16 01:55:00,
2013-01-15 20:56:00,46.9,30.1,30.27,NE,45,0.0,3.5,52,0.00,,,0.00,WUHU216HW,2013-01-16 01:56:00,
2013-01-15 20:58:00,46.9,30.1,30.26,East,90,0.0,3.5,52,0.00,,,0.00,WUHU216HW,2013-01-16 01:58:00,
2013-01-15 20:59:00,46.0,43.0,29.83,NE,45,0.0,0.0,89,0.00,,,0.00,WUHU216HW,2013-01-16 01:59:00,
2013-01-15 21:00:00,47.3,30.0,30.27,ENE,68,4.2,4.2,51,0.00,,,0.00,WUHU216HW,2013-01-16 02:00:00,
2013-01-15 21:01:00,47.8,30.0,30.26,ENE,68,0.0,4.2,50,0.00,,,0.00,WUHU216HW,2013-01-16 02:01:00,
2013-01-15 21:02:00,47.8,30.0,30.26,ENE,68,0.0,4.2,50,0.00,,,0.00,WUHU216HW,2013-01-16 02:02:00,
2013-01-15 21:03:00,48.3,30.5,30.26,ENE,68,0.0,4.2,50,0.00,,,0.00,WUHU216HW,2013-01-16 02:03:00,
2013-01-15 21:04:00,48.3,30.5,30.26,ENE,68,0.0,4.2,50,0.00,,,0.00,WUHU216HW,2013-01-16 02:04:00,
2013-01-15 21:05:00,46.0,43.0,29.83,NE,45,0.0,0.0,89,0.00,,,0.00,WUHU216HW,2013-01-16 02:05:00,
2013-01-15 21:06:00,48.3,30.5,30.26,ENE,68,0.0,4.2,49,0.00,,,0.00,WUHU216HW,2013-01-16 02:06:00,
2013-01-15 21:07:00,48.3,30.5,30.26,ENE,68,0.0,4.2,49,0.00,,,0.00,WUHU216HW,2013-01-16 02:07:00,
2013-01-15 21:08:00,48.5,30.1,30.26,ENE,68,0.6,4.2,49,0.00,,,0.00,WUHU216HW,2013-01-16 02:08:00,
2013-01-15 21:09:00,48.5,30.1,30.26,ENE,68,0.6,4.2,49,0.00,,,0.00,WUHU216HW,2013-01-16 02:09:00,
2013-01-15 21:10:00,46.0,43.0,29.82,NE,45,0.0,0.0,89,0.00,,,0.00,WUHU216HW,2013-01-16 02:10:00,
2013-01-15 21:11:00,48.0,29.1,30.25,ENE,68,0.0,0.6,48,0.00,,,0.00,WUHU216HW,2013-01-16 02:11:00,
2013-01-15 21:12:00,48.3,29.4,30.25,NNE,23,0.0,0.6,48,0.00,,,0.00,WUHU216HW,2013-01-16 02:12:00,
2013-01-15 21:13:00,48.3,29.4,30.25,NNE,23,0.0,0.6,48,0.00,,,0.00,WUHU216HW,2013-01-16 02:13:00,
2013-01-15 21:14:00,48.3,29.4,30.25,ESE,113,0.0,0.6,49,0.00,,,0.00,WUHU216HW,2013-01-16 02:14:00,
2013-01-15 21:15:00,46.0,43.0,29.82,NE,45,0.0,0.0,89,0.00,,,0.00,WUHU216HW,2013-01-16 02:15:00,
2013-01-15 21:16:00,48.3,29.4,30.25,ENE,68,0.0,0.6,50,0.00,,,0.00,WUHU216HW,2013-01-16 02:16:00,
2013-01-15 21:17:00,48.3,29.4,30.25,ENE,68,0.0,0.6,50,0.00,,,0.00,WUHU216HW,2013-01-16 02:17:00,
2013-01-15 21:18:00,48.3,29.4,30.24,ENE,68,0.0,0.6,50,0.00,,,0.00,WUHU216HW,2013-01-16 02:18:00,
2013-01-15 21:19:00,48.3,29.4,30.24,NE,45,3.8,3.8,49,0.00,,,0.00,WUHU216HW,2013-01-16 02:19:00,
2013-01-15 21:20:00,46.0,43.0,29.82,NE,45,0.0,0.0,89,0.00,,,0.00,WUHU216HW,2013-01-16 02:20:00,
2013-01-15 21:22:00,48.0,29.6,30.24,West,270,2.2,3.8,49,0.00,,,0.00,WUHU216HW,2013-01-16 02:22:00,
2013-01-15 21:23:00,47.4,30.1,30.24,NW,315,0.0,3.8,51,0.00,,,0.00,WUHU216HW,2013-01-16 02:23:00,
2013-01-15 21:24:00,47.4,30.1,30.24,NW,315,0.0,3.8,51,0.00,,,0.00,WUHU216HW,2013-01-16 02:24:00,
2013-01-15 21:25:00,46.0,43.0,29.82,NE,45,0.0,0.0,89,0.00,,,0.00,WUHU216HW,2013-01-16 02:25:00,
2013-01-15 21:26:00,47.3,30.0,30.24,NNW,338,0.0,3.8,51,0.00,,,0.00,WUHU216HW,2013-01-16 02:26:00,
2013-01-15 21:28:00,47.1,29.4,30.24,NE,45,0.0,3.8,50,0.00,,,0.00,WUHU216HW,2013-01-16 02:28:00,
2013-01-15 21:30:00,46.0,43.0,29.81,NE,45,0.0,0.0,89,0.00,,,0.00,WUHU216HW,2013-01-16 02:30:00,
2013-01-15 21:31:00,47.3,30.0,30.24,ENE,68,0.0,3.5,51,0.00,,,0.00,WUHU216HW,2013-01-16 02:31:00,
2013-01-15 21:33:00,47.4,29.1,30.24,NE,45,0.0,3.5,49,0.00,,,0.00,WUHU216HW,2013-01-16 02:33:00,
2013-01-15 21:34:00,47.4,29.1,30.24,NE,45,0.0,3.5,49,0.00,,,0.00,WUHU216HW,2013-01-16 02:34:00,
2013-01-15 21:35:00,46.0,43.0,29.81,NE,45,0.0,0.0,89,0.00,,,0.00,WUHU216HW,2013-01-16 02:35:00,
2013-01-15 21:36:00,47.6,29.8,30.23,ENE,68,0.0,3.5,50,0.00,,,0.00,WUHU216HW,2013-01-16 02:36:00,
2013-01-15 21:37:00,47.6,29.8,30.23,ENE,68,0.0,3.5,50,0.00,,,0.00,WUHU216HW,2013-01-16 02:37:00,
2013-01-15 21:38:00,47.1,29.8,30.23,ENE,68,0.0,3.5,51,0.00,,,0.00,WUHU216HW,2013-01-16 02:38:00,
2013-01-15 21:39:00,47.1,29.8,30.23,ENE,68,0.0,3.5,51,0.00,,,0.00,WUHU216HW,2013-01-16 02:39:00,
2013-01-15 21:40:00,46.0,43.0,29.81,NE,45,0.0,0.0,89,0.00,,,0.00,WUHU216HW,2013-01-16 02:40:00,
2013-01-15 21:41:00,47.1,29.8,30.23,ENE,68,3.1,3.1,51,0.00,,,0.00,WUHU216HW,2013-01-16 02:41:00,
2013-01-15 21:43:00,47.1,29.8,30.23,ENE,68,0.4,3.1,50,0.00,,,0.00,WUHU216HW,2013-01-16 02:43:00,
2013-01-15 21:44:00,47.4,30.1,30.23,NE,45,0.0,3.1,51,0.00,,,0.00,WUHU216HW,2013-01-16 02:44:00,
2013-01-15 21:45:00,45.8,42.8,29.81,NE,45,0.0,0.0,89,0.00,,,0.00,WUHU216HW,2013-01-16 02:45:00,
2013-01-15 21:46:00,47.8,29.5,30.23,ENE,68,0.0,3.1,49,0.00,,,0.00,WUHU216HW,2013-01-16 02:46:00,
2013-01-15 21:47:00,47.8,29.5,30.23,ENE,68,0.0,3.1,49,0.00,,,0.00,WUHU216HW,2013-01-16 02:47:00,
2013-01-15 21:48:00,47.8,29.5,30.23,ENE,68,0.0,3.1,49,0.00,,,0.00,WUHU216HW,2013-01-16 02:48:00,
2013-01-15 21:49:00,47.8,29.5,30.23,SE,135,0.0,3.1,51,0.00,,,0.00,WUHU216HW,2013-01-16 02:49:00,
2013-01-15 21:50:00,45.8,42.8,29.81,NNE,23,0.0,0.0,89,0.00,,,0.00,WUHU216HW,2013-01-16 02:50:00,
2013-01-15 21:51:00,48.0,30.2,30.23,ESE,113,0.0,0.4,50,0.00,,,0.00,WUHU216HW,2013-01-16 02:51:00,
2013-01-15 21:52:00,48.0,30.2,30.23,ESE,113,0.0,0.4,50,0.00,,,0.00,WUHU216HW,2013-01-16 02:52:00,
2013-01-15 21:53:00,48.3,30.5,30.23,ENE,68,1.5,1.5,50,0.00,,,0.00,WUHU216HW,2013-01-16 02:53:00,
2013-01-15 21:54:00,48.3,30.5,30.23,ENE,68,1.5,1.5,50,0.00,,,0.00,WUHU216HW,2013-01-16 02:54:00,
2013-01-15 21:55:00,46.0,43.0,29.81,NNE,23,0.0,0.0,89,0.00,,,0.00,WUHU216HW,2013-01-16 02:55:00,
2013-01-15 21:56:00,48.3,30.0,30.22,NE,45,1.7,7.6,49,0.00,,,0.00,WUHU216HW,2013-01-16 02:56:00,
2013-01-15 21:57:00,48.3,30.0,30.22,NE,45,1.7,7.6,49,0.00,,,0.00,WUHU216HW,2013-01-16 02:57:00,
2013-01-15 21:59:00,47.8,30.0,30.21,East,90,2.2,7.6,50,0.00,,,0.00,WUHU216HW,2013-01-16 02:59:00,
2013-01-15 22:00:00,46.0,43.0,29.81,NNE,23,0.0,0.0,89,0.00,,,0.00,WUHU216HW,2013-01-16 03:00:00,
2013-01-15 22:01:00,47.8,30.0,30.22,ESE,113,0.0,7.6,50,0.00,,,0.00,WUHU216HW,2013-01-16 03:01:00,
2013-01-15 22:02:00,47.8,30.0,30.22,NE,45,0.0,7.6,50,0.00,,,0.00,WUHU216HW,2013-01-16 03:02:00,
2013-01-15 22:03:00,47.8,30.0,30.22,NE,45,0.0,7.6,50,0.00,,,0.00,WUHU216HW,2013-01-16 03:03:00,
2013-01-15 22:04:00,47.8,30.0,30.22,NE,45,0.0,7.6,50,0.00,,,0.00,WUHU216HW,2013-01-16 03:04:00,
2013-01-15 22:05:00,46.0,43.0,29.81,NNE,23,0.0,0.0,89,0.00,,,0.00,WUHU216HW,2013-01-16 03:05:00,
2013-01-15 22:06:00,47.8,30.0,30.22,NE,45,1.1,2.2,50,0.00,,,0.00,WUHU216HW,2013-01-16 03:06:00,
2013-01-15 22:07:00,47.6,30.3,30.22,ENE,68,1.5,2.2,51,0.00,,,0.00,WUHU216HW,2013-01-16 03:07:00,
2013-01-15 22:08:00,47.6,30.3,30.22,ENE,68,1.5,2.2,51,0.00,,,0.00,WUHU216HW,2013-01-16 03:08:00,
2013-01-15 22:09:00,47.3,30.0,30.22,NE,45,3.3,3.3,51,0.00,,,0.00,WUHU216HW,2013-01-16 03:09:00,
2013-01-15 22:10:00,45.8,42.8,29.81,NNE,23,0.0,0.0,89,0.00,,,0.00,WUHU216HW,2013-01-16 03:10:00,
2013-01-15 22:11:00,47.4,30.1,30.22,NE,45,0.0,3.3,51,0.00,,,0.00,WUHU216HW,2013-01-16 03:11:00,
2013-01-15 22:12:00,47.4,30.1,30.22,NE,45,0.0,3.3,51,0.00,,,0.00,WUHU216HW,2013-01-16 03:12:00,
2013-01-15 22:13:00,47.4,30.1,30.22,NE,45,0.0,3.3,51,0.00,,,0.00,WUHU216HW,2013-01-16 03:13:00,
2013-01-15 22:14:00,47.4,30.1,30.23,NNW,338,0.0,3.3,50,0.00,,,0.00,WUHU216HW,2013-01-16 03:14:00,
2013-01-15 22:15:00,46.0,43.0,29.81,NNE,23,0.0,0.0,89,0.00,,,0.00,WUHU216HW,2013-01-16 03:15:00,
2013-01-15 22:16:00,46.9,28.7,30.23,West,270,0.0,3.3,49,0.00,,,0.00,WUHU216HW,2013-01-16 03:16:00,
2013-01-15 22:17:00,46.9,28.7,30.22,West,270,0.0,3.3,49,0.00,,,0.00,WUHU216HW,2013-01-16 03:17:00,
2013-01-15 22:18:00,46.5,29.3,30.22,NW,315,0.0,3.3,51,0.00,,,0.00,WUHU216HW,2013-01-16 03:18:00,
2013-01-15 22:19:00,46.2,28.6,30.23,WNW,293,0.0,3.3,50,0.00,,,0.00,WUHU216HW,2013-01-16 03:19:00,
2013-01-15 22:20:00,46.0,43.0,29.81,NNE,23,0.0,0.0,89,0.00,,,0.00,WUHU216HW,2013-01-16 03:20:00,
2013-01-15 22:21:00,46.2,28.6,30.23,WNW,293,0.0,0.0,50,0.00,,,0.00,WUHU216HW,2013-01-16 03:21:00,
2013-01-15 22:22:00,46.0,28.8,30.23,NW,315,0.0,0.0,51,0.00,,,0.00,WUHU216HW,2013-01-16 03:22:00,
2013-01-15 22:23:00,46.0,28.8,30.23,NW,315,0.0,0.0,51,0.00,,,0.00,WUHU216HW,2013-01-16 03:23:00,
2013-01-15 22:24:00,46.0,28.8,30.23,NW,315,0.0,0.0,51,0.00,,,0.00,WUHU216HW,2013-01-16 03:24:00,
2013-01-15 22:25:00,46.0,43.0,29.80,North,0,0.0,0.0,89,0.00,,,0.00,WUHU216HW,2013-01-16 03:25:00,
2013-01-15 22:26:00,46.0,28.8,30.23,NW,315,0.0,0.0,52,0.00,,,0.00,WUHU216HW,2013-01-16 03:26:00,
2013-01-15 22:27:00,46.0,28.8,30.23,NW,315,0.0,0.0,52,0.00,,,0.00,WUHU216HW,2013-01-16 03:27:00,
2013-01-15 22:29:00,46.2,29.9,30.23,NW,315,0.0,0.0,53,0.00,,,0.00,WUHU216HW,2013-01-16 03:29:00,
2013-01-15 22:30:00,46.2,29.9,30.23,NW,315,0.0,0.0,53,0.00,,,0.00,WUHU216HW,2013-01-16 03:30:00,
2013-01-15 22:31:00,46.0,43.0,29.80,NE,45,0.0,0.0,89,0.00,,,0.00,WUHU216HW,2013-01-16 03:31:00,
2013-01-15 22:32:00,45.8,28.2,30.23,NNE,23,0.0,0.0,50,0.00,,,0.00,WUHU216HW,2013-01-16 03:32:00,
2013-01-15 22:33:00,45.1,28.9,30.23,NNE,23,0.0,0.0,53,0.00,,,0.00,WUHU216HW,2013-01-16 03:33:00,
2013-01-15 22:34:00,45.1,28.9,30.23,NNE,23,0.0,0.0,53,0.00,,,0.00,WUHU216HW,2013-01-16 03:34:00,
2013-01-15 22:35:00,45.1,28.9,30.23,NE,45,2.0,2.0,53,0.00,,,0.00,WUHU216HW,2013-01-16 03:35:00,
2013-01-15 22:36:00,46.0,43.0,29.80,NE,45,0.0,0.0,89,0.00,,,0.00,WUHU216HW,2013-01-16 03:36:00,
2013-01-15 22:37:00,45.5,29.3,30.23,NNE,23,0.0,2.0,53,0.00,,,0.00,WUHU216HW,2013-01-16 03:37:00,
2013-01-15 22:41:00,46.0,43.0,29.80,NE,45,0.0,0.0,89,0.00,,,0.00,WUHU216HW,2013-01-16 03:41:00,
2013-01-15 22:42:00,45.6,29.4,30.23,NNW,338,0.0,2.0,53,0.00,,,0.00,WUHU216HW,2013-01-16 03:42:00,
2013-01-15 22:43:00,45.6,29.4,30.23,NNW,338,0.0,2.0,53,0.00,,,0.00,WUHU216HW,2013-01-16 03:43:00,
2013-01-15 22:44:00,45.8,28.7,30.23,NNW,338,0.0,2.0,51,0.00,,,0.00,WUHU216HW,2013-01-16 03:44:00,
2013-01-15 22:45:00,45.8,28.7,30.23,NNW,338,0.0,2.0,52,0.00,,,0.00,WUHU216HW,2013-01-16 03:45:00,
2013-01-15 22:46:00,46.0,43.0,29.79,NE,45,0.0,0.0,89,0.00,,,0.00,WUHU216HW,2013-01-16 03:46:00,
2013-01-15 22:47:00,45.8,28.7,30.23,NNW,338,0.0,0.0,52,0.00,,,0.00,WUHU216HW,2013-01-16 03:47:00,
2013-01-15 22:48:00,45.3,29.1,30.23,NNW,338,0.0,0.0,53,0.00,,,0.00,WUHU216HW,2013-01-16 03:48:00,
2013-01-15 22:49:00,45.3,29.1,30.23,NNW,338,0.0,0.0,53,0.00,,,0.00,WUHU216HW,2013-01-16 03:49:00,
2013-01-15 22:50:00,45.3,29.1,30.23,NNW,338,0.0,0.0,53,0.00,,,0.00,WUHU216HW,2013-01-16 03:50:00,
2013-01-15 22:51:00,46.0,43.0,29.79,NE,45,0.0,0.0,89,0.00,,,0.00,WUHU216HW,2013-01-16 03:51:00,
2013-01-15 22:52:00,45.5,28.8,30.23,NNW,338,0.0,0.0,52,0.00,,,0.00,WUHU216HW,2013-01-16 03:52:00,
2013-01-15 22:53:00,45.5,28.8,30.23,NNW,338,0.0,0.0,52,0.00,,,0.00,WUHU216HW,2013-01-16 03:53:00,
2013-01-15 22:56:00,46.0,43.0,29.79,NE,45,0.0,0.0,89,0.00,,,0.00,WUHU216HW,2013-01-16 03:56:00,
2013-01-15 22:57:00,45.6,29.4,30.23,NW,315,0.0,0.0,52,0.00,,,0.00,WUHU216HW,2013-01-16 03:57:00,
2013-01-15 22:58:00,45.6,29.4,30.23,NW,315,0.0,0.0,52,0.00,,,0.00,WUHU216HW,2013-01-16 03:58:00,
2013-01-15 22:59:00,46.0,29.3,30.22,NW,315,0.0,0.0,52,0.00,,,0.00,WUHU216HW,2013-01-16 03:59:00,
2013-01-15 23:01:00,46.0,43.0,29.79,NE,45,0.0,0.0,89,0.00,,,0.00,WUHU216HW,2013-01-16 04:01:00,
2013-01-15 23:02:00,46.0,29.3,30.22,NW,315,0.0,0.0,52,0.00,,,0.00,WUHU216HW,2013-01-16 04:02:00,
2013-01-15 23:03:00,46.5,29.8,30.22,NW,315,0.0,0.0,52,0.00,,,0.00,WUHU216HW,2013-01-16 04:03:00,
2013-01-15 23:04:00,46.5,29.8,30.22,NW,315,0.0,0.0,52,0.00,,,0.00,WUHU216HW,2013-01-16 04:04:00,
2013-01-15 23:05:00,46.2,29.0,30.22,NW,315,0.0,0.0,51,0.00,,,0.00,WUHU216HW,2013-01-16 04:05:00,
2013-01-15 23:06:00,46.0,43.0,29.79,NE,45,0.0,0.0,89,0.00,,,0.00,WUHU216HW,2013-01-16 04:06:00,
2013-01-15 23:07:00,46.0,29.3,30.23,NW,315,0.0,0.0,52,0.00,,,0.00,WUHU216HW,2013-01-16 04:07:00,
2013-01-15 23:08:00,46.0,29.3,30.22,NW,315,0.0,0.0,52,0.00,,,0.00,WUHU216HW,2013-01-16 04:08:00,
2013-01-15 23:09:00,45.3,28.6,30.22,ENE,68,0.0,0.0,52,0.00,,,0.00,WUHU216HW,2013-01-16 04:09:00,
2013-01-15 23:10:00,45.3,28.6,30.22,ENE,68,0.0,0.0,52,0.00,,,0.00,WUHU216HW,2013-01-16 04:10:00,
2013-01-15 23:11:00,46.0,43.0,29.79,NE,45,0.0,0.0,89,0.00,,,0.00,WUHU216HW,2013-01-16 04:11:00,
2013-01-15 23:12:00,44.9,28.3,30.23,ENE,68,0.0,0.0,52,0.00,,,0.00,WUHU216HW,2013-01-16 04:12:00,
2013-01-15 23:13:00,44.9,28.3,30.22,ENE,68,0.0,0.0,52,0.00,,,0.00,WUHU216HW,2013-01-16 04:13:00,
2013-01-15 23:14:00,44.9,28.3,30.22,ENE,68,0.0,0.0,52,0.00,,,0.00,WUHU216HW,2013-01-16 04:14:00,
2013-01-15 23:16:00,46.0,43.0,29.78,NE,45,0.0,0.0,89,0.00,,,0.00,WUHU216HW,2013-01-16 04:16:00,
2013-01-15 23:17:00,44.9,28.3,30.22,ENE,68,2.0,2.0,53,0.00,,,0.00,WUHU216HW,2013-01-16 04:17:00,
2013-01-15 23:18:00,45.3,29.1,30.22,ENE,68,0.0,2.0,53,0.00,,,0.00,WUHU216HW,2013-01-16 04:18:00,
2013-01-15 23:19:00,45.3,29.1,30.22,ENE,68,0.0,2.0,53,0.00,,,0.00,WUHU216HW,2013-01-16 04:19:00,
2013-01-15 23:20:00,45.1,28.9,30.22,ENE,68,0.0,2.0,53,0.00,,,0.00,WUHU216HW,2013-01-16 04:20:00,
2013-01-15 23:21:00,46.2,43.2,29.77,NE,45,0.0,0.0,89,0.00,,,0.00,WUHU216HW,2013-01-16 04:21:00,
2013-01-15 23:22:00,45.3,29.5,30.21,ENE,68,0.0,2.0,54,0.00,,,0.00,WUHU216HW,2013-01-16 04:22:00,
2013-01-15 23:23:00,45.3,29.5,30.21,ENE,68,0.0,2.0,54,0.00,,,0.00,WUHU216HW,2013-01-16 04:23:00,
2013-01-15 23:24:00,45.3,29.5,30.21,ENE,68,0.0,2.0,53,0.00,,,0.00,WUHU216HW,2013-01-16 04:24:00,
2013-01-15 23:25:00,45.3,29.5,30.22,ENE,68,0.0,2.0,53,0.00,,,0.00,WUHU216HW,2013-01-16 04:25:00,
2013-01-15 23:26:00,46.0,43.0,29.77,NE,45,0.0,0.0,89,0.00,,,0.00,WUHU216HW,2013-01-16 04:26:00,
2013-01-15 23:27:00,45.3,29.5,30.21,ENE,68,0.0,2.0,53,0.00,,,0.00,WUHU216HW,2013-01-16 04:27:00,
2013-01-15 23:28:00,45.3,29.5,30.21,ENE,68,0.0,0.0,53,0.00,,,0.00,WUHU216HW,2013-01-16 04:28:00,
2013-01-15 23:29:00,45.3,29.5,30.21,NE,45,3.1,3.1,53,0.00,,,0.00,WUHU216HW,2013-01-16 04:29:00,
2013-01-15 23:30:00,45.3,29.5,30.21,NE,45,3.1,3.1,53,0.00,,,0.00,WUHU216HW,2013-01-16 04:30:00,
2013-01-15 23:31:00,46.2,43.2,29.78,NE,45,0.0,0.0,89,0.00,,,0.00,WUHU216HW,2013-01-16 04:31:00,
2013-01-15 23:32:00,44.9,28.8,30.21,NNE,23,0.0,3.1,53,0.00,,,0.00,WUHU216HW,2013-01-16 04:32:00,
2013-01-15 23:33:00,44.9,28.8,30.21,NNE,23,0.0,3.1,54,0.00,,,0.00,WUHU216HW,2013-01-16 04:33:00,
2013-01-15 23:34:00,44.9,28.8,30.21,NNE,23,0.0,3.1,54,0.00,,,0.00,WUHU216HW,2013-01-16 04:34:00,
2013-01-15 23:35:00,44.6,28.4,30.21,NNE,23,0.0,3.1,53,0.00,,,0.00,WUHU216HW,2013-01-16 04:35:00,
2013-01-15 23:36:00,46.2,43.2,29.78,NE,45,0.0,0.0,89,0.00,,,0.00,WUHU216HW,2013-01-16 04:36:00,
2013-01-15 23:37:00,44.4,28.3,30.21,NE,45,0.0,3.1,53,0.00,,,0.00,WUHU216HW,2013-01-16 04:37:00,
2013-01-15 23:38:00,44.4,28.3,30.21,NE,45,0.0,3.1,53,0.00,,,0.00,WUHU216HW,2013-01-16 04:38:00,
2013-01-15 23:39:00,44.2,28.1,30.21,NE,45,0.0,3.1,53,0.00,,,0.00,WUHU216HW,2013-01-16 04:39:00,
2013-01-15 23:40:00,44.2,28.1,30.21,NE,45,0.0,0.0,53,0.00,,,0.00,WUHU216HW,2013-01-16 04:40:00,
2013-01-15 23:41:00,46.2,43.5,29.77,NE,45,0.0,0.0,90,0.00,,,0.00,WUHU216HW,2013-01-16 04:41:00,
2013-01-15 23:42:00,43.8,28.7,30.21,NE,45,0.0,0.0,55,0.00,,,0.00,WUHU216HW,2013-01-16 04:42:00,
2013-01-15 23:43:00,43.8,28.7,30.21,NE,45,0.0,0.0,55,0.00,,,0.00,WUHU216HW,2013-01-16 04:43:00,
2013-01-15 23:44:00,44.0,28.8,30.22,NE,45,0.0,0.0,55,0.00,,,0.00,WUHU216HW,2013-01-16 04:44:00,
2013-01-15 23:45:00,44.0,28.8,30.21,NE,45,0.0,0.0,55,0.00,,,0.00,WUHU216HW,2013-01-16 04:45:00,
2013-01-15 23:46:00,46.2,43.5,29.76,NE,45,0.0,0.0,90,0.00,,,0.00,WUHU216HW,2013-01-16 04:46:00,
2013-01-15 23:47:00,43.8,27.8,30.21,East,90,0.0,0.0,53,0.00,,,0.00,WUHU216HW,2013-01-16 04:47:00,
2013-01-15 23:48:00,43.8,27.8,30.21,East,90,0.0,0.0,53,0.00,,,0.00,WUHU216HW,2013-01-16 04:48:00,
2013-01-15 23:49:00,43.8,27.8,30.21,East,90,0.0,0.0,53,0.00,,,0.00,WUHU216HW,2013-01-16 04:49:00,
2013-01-15 23:50:00,43.8,27.8,30.22,East,90,0.0,0.0,54,0.00,,,0.00,WUHU216HW,2013-01-16 04:50:00,
2013-01-15 23:51:00,46.2,43.5,29.76,NE,45,0.0,0.0,90,0.00,,,0.00,WUHU216HW,2013-01-16 04:51:00,
2013-01-15 23:52:00,43.8,27.8,30.22,East,90,0.0,0.0,53,0.00,,,0.00,WUHU216HW,2013-01-16 04:52:00,
2013-01-15 23:53:00,43.8,27.8,30.22,East,90,0.0,0.0,53,0.00,,,0.00,WUHU216HW,2013-01-16 04:53:00,
2013-01-15 23:54:00,43.8,27.8,30.22,East,90,0.0,0.0,53,0.00,,,0.00,WUHU216HW,2013-01-16 04:54:00,
2013-01-15 23:55:00,43.5,27.9,30.21,East,90,0.0,0.0,54,0.00,,,0.00,WUHU216HW,2013-01-16 04:55:00,
2013-01-15 23:56:00,43.5,27.9,30.21,East,90,0.0,0.0,54,0.00,,,0.00,WUHU216HW,2013-01-16 04:56:00,
2013-01-15 23:57:00,46.2,43.5,29.77,NE,45,0.0,0.0,90,0.00,,,0.00,WUHU216HW,2013-01-16 04:57:00,
2013-01-15 23:58:00,43.7,28.9,30.22,East,90,0.0,0.0,56,0.00,,,0.00,WUHU216HW,2013-01-16 04:58:00,
2013-01-15 23:59:00,43.8,28.2,30.22,East,90,0.0,0.0,54,0.00,,,0.00,WUHU216HW,2013-01-16 04:59:00,